Observation data for Amarillo 7 South Southeast on 02/14/2020      Previous  Date  Next       Current Mesonet Observations  Soil Data  Daily Summary Page  Observations in Plain Language
KAM1 140600Z 13009KT M06/M11 A3027 RMK A01 T10611110  RH  068%=      5-min Rain = 0
KAM1 140601Z 13012KT M06/M11 A3027 RMK A01 T10611110  RH  068%=      5-min Rain = 0
KAM1 140602Z 13012KT M06/M11 A3028 RMK A01 T10611111  RH  068%=      5-min Rain = 0
KAM1 140603Z 13010KT M06/M11 A3028 RMK A01 T10621111  RH  068%=      5-min Rain = 0
KAM1 140604Z 14009KT M06/M11 A3028 RMK A01 T10611111  RH  068%=      5-min Rain = 0
KAM1 140605Z 13010KT M06/M11 A3028 RMK A01 T10621110  RH  068%=      5-min Rain = 0
KAM1 140606Z 13009KT M06/M11 A3028 RMK A01 T10621111  RH  068%=      5-min Rain = 0
KAM1 140607Z 13010KT M06/M11 A3028 RMK A01 T10631111  RH  069%=      5-min Rain = 0
KAM1 140608Z 13009KT M06/M11 A3028 RMK A01 T10631112  RH  069%=      5-min Rain = 0
KAM1 140609Z 13011KT M06/M11 A3028 RMK A01 T10631112  RH  068%=      5-min Rain = 0
KAM1 140610Z 13010KT M06/M11 A3028 RMK A01 T10631112  RH  068%=      5-min Rain = 0
KAM1 140611Z 13011KT M06/M11 A3028 RMK A01 T10641113  RH  068%=      5-min Rain = 0
KAM1 140612Z 13010KT M06/M11 A3028 RMK A01 T10641114  RH  068%=      5-min Rain = 0
KAM1 140613Z 13011KT M06/M11 A3028 RMK A01 T10641114  RH  067%=      5-min Rain = 0
KAM1 140614Z 13010KT M06/M12 A3028 RMK A01 T10641115  RH  067%=      5-min Rain = 0
KAM1 140615Z 13009KT M06/M12 A3028 RMK A01 T10641115  RH  067%=      5-min Rain = 0
KAM1 140616Z 13008KT M06/M12 A3028 RMK A01 T10641115  RH  067%=      5-min Rain = 0
KAM1 140617Z 13007KT M07/M12 A3028 RMK A01 T10651115  RH  068%=      5-min Rain = 0
KAM1 140618Z 14008KT M07/M11 A3028 RMK A01 T10651114  RH  068%=      5-min Rain = 0
KAM1 140619Z 13006KT M07/M11 A3028 RMK A01 T10651114  RH  068%=      5-min Rain = 0
KAM1 140620Z 13009KT M07/M11 A3028 RMK A01 T10661114  RH  068%=      5-min Rain = 0
KAM1 140621Z 13010KT M07/M12 A3028 RMK A01 T10661115  RH  068%=      5-min Rain = 0
KAM1 140622Z 14010KT M07/M12 A3028 RMK A01 T10661115  RH  068%=      5-min Rain = 0
KAM1 140623Z 13008KT M07/M12 A3028 RMK A01 T10651115  RH  068%=      5-min Rain = 0
KAM1 140624Z 14009KT M07/M12 A3028 RMK A01 T10651115  RH  068%=      5-min Rain = 0
KAM1 140625Z 13009KT M07/M12 A3028 RMK A01 T10661115  RH  068%=      5-min Rain = 0
KAM1 140626Z 14007KT M07/M12 A3028 RMK A01 T10651115  RH  068%=      5-min Rain = 0
KAM1 140627Z 14008KT M07/M12 A3028 RMK A01 T10661115  RH  068%=      5-min Rain = 0
KAM1 140628Z 14009KT M07/M12 A3028 RMK A01 T10661115  RH  068%=      5-min Rain = 0
KAM1 140629Z 14009KT M07/M12 A3028 RMK A01 T10661116  RH  068%=      5-min Rain = 0
KAM1 140630Z 14009KT M07/M12 A3028 RMK A01 T10661116  RH  068%=      5-min Rain = 0
KAM1 140631Z 14008KT M07/M12 A3028 RMK A01 T10661116  RH  068%=      5-min Rain = 0
KAM1 140632Z 14007KT M07/M12 A3028 RMK A01 T10661116  RH  068%=      5-min Rain = 0
KAM1 140633Z 14008KT M07/M12 A3028 RMK A01 T10661116  RH  068%=      5-min Rain = 0
KAM1 140634Z 13007KT M07/M12 A3028 RMK A01 T10671117  RH  068%=      5-min Rain = 0
KAM1 140635Z 13010KT M07/M12 A3028 RMK A01 T10671117  RH  068%=      5-min Rain = 0
KAM1 140636Z 13009KT M07/M12 A3029 RMK A01 T10671117  RH  068%=      5-min Rain = 0
KAM1 140637Z 13010KT M07/M12 A3029 RMK A01 T10671117  RH  067%=      5-min Rain = 0
KAM1 140638Z 13008KT M07/M12 A3029 RMK A01 T10671118  RH  067%=      5-min Rain = 0
KAM1 140639Z 14006KT M07/M12 A3029 RMK A01 T10671117  RH  067%=      5-min Rain = 0
KAM1 140640Z 13008KT M07/M12 A3029 RMK A01 T10671117  RH  068%=      5-min Rain = 0
KAM1 140641Z 13008KT M07/M12 A3029 RMK A01 T10681117  RH  068%=      5-min Rain = 0
KAM1 140642Z 13007KT M07/M12 A3029 RMK A01 T10681117  RH  068%=      5-min Rain = 0
KAM1 140643Z 13007KT M07/M12 A3029 RMK A01 T10681116  RH  068%=      5-min Rain = 0
KAM1 140644Z 13008KT M07/M12 A3029 RMK A01 T10681116  RH  069%=      5-min Rain = 0
KAM1 140645Z 13007KT M07/M12 A3029 RMK A01 T10681116  RH  069%=      5-min Rain = 0
KAM1 140646Z 13008KT M07/M12 A3029 RMK A01 T10681115  RH  069%=      5-min Rain = 0
KAM1 140647Z 13009KT M07/M12 A3029 RMK A01 T10671116  RH  068%=      5-min Rain = 0
KAM1 140648Z 13008KT M07/M12 A3029 RMK A01 T10671116  RH  068%=      5-min Rain = 0
KAM1 140649Z 13008KT M07/M12 A3029 RMK A01 T10671116  RH  068%=      5-min Rain = 0
KAM1 140650Z 13007KT M07/M12 A3029 RMK A01 T10661117  RH  068%=      5-min Rain = 0
KAM1 140651Z 13007KT M07/M12 A3029 RMK A01 T10661116  RH  068%=      5-min Rain = 0
KAM1 140652Z 12007KT M07/M12 A3029 RMK A01 T10661116  RH  068%=      5-min Rain = 0
KAM1 140653Z 12008KT M07/M12 A3029 RMK A01 T10661116  RH  068%=      5-min Rain = 0
KAM1 140654Z 12007KT M07/M12 A3029 RMK A01 T10661116  RH  068%=      5-min Rain = 0
KAM1 140655Z 13007KT M07/M12 A3029 RMK A01 T10661116  RH  068%=      5-min Rain = 0
KAM1 140656Z 12008KT M07/M12 A3029 RMK A01 T10661116  RH  068%=      5-min Rain = 0
KAM1 140657Z 12007KT M07/M12 A3029 RMK A01 T10661116  RH  068%=      5-min Rain = 0
KAM1 140658Z 12008KT M07/M12 A3029 RMK A01 T10661116  RH  068%=      5-min Rain = 0
KAM1 140659Z 12009KT M07/M12 A303 RMK A01 T10661116  RH  068%=      5-min Rain = 0
KAM1 140700Z 13009KT M07/M12 A303 RMK A01 T10661117  RH  067%=      5-min Rain = 0
KAM1 140701Z 12008KT M07/M12 A303 RMK A01 T10661117  RH  067%=      5-min Rain = 0
KAM1 140702Z 12009KT M07/M12 A303 RMK A01 T10661117  RH  067%=      5-min Rain = 0
KAM1 140703Z 13009KT M07/M12 A303 RMK A01 T10661118  RH  067%=      5-min Rain = 0
KAM1 140704Z 12008KT M07/M12 A303 RMK A01 T10651118  RH  066%=      5-min Rain = 0
KAM1 140705Z 12008KT M07/M12 A303 RMK A01 T10651117  RH  067%=      5-min Rain = 0
KAM1 140706Z 12007KT M07/M12 A303 RMK A01 T10651117  RH  067%=      5-min Rain = 0
KAM1 140707Z 12008KT M07/M12 A303 RMK A01 T10651117  RH  067%=      5-min Rain = 0
KAM1 140708Z 12007KT M07/M12 A303 RMK A01 T10651117  RH  067%=      5-min Rain = 0
KAM1 140709Z 12007KT M07/M12 A3029 RMK A01 T10651116  RH  067%=      5-min Rain = 0
KAM1 140710Z 12007KT M06/M12 A3029 RMK A01 T10641115  RH  067%=      5-min Rain = 0
KAM1 140711Z 13008KT M06/M12 A3029 RMK A01 T10641115  RH  067%=      5-min Rain = 0
KAM1 140712Z 13009KT M06/M12 A3029 RMK A01 T10641116  RH  066%=      5-min Rain = 0
KAM1 140713Z 12006KT M06/M12 A3029 RMK A01 T10641117  RH  066%=      5-min Rain = 0
KAM1 140714Z 13007KT M06/M12 A3029 RMK A01 T10641117  RH  066%=      5-min Rain = 0
KAM1 140715Z 13010KT M06/M12 A303 RMK A01 T10641116  RH  066%=      5-min Rain = 0
KAM1 140716Z 13009KT M06/M12 A303 RMK A01 T10641118  RH  066%=      5-min Rain = 0
KAM1 140717Z 13009KT M06/M12 A303 RMK A01 T10641119  RH  065%=      5-min Rain = 0
KAM1 140718Z 13009KT M06/M12 A303 RMK A01 T10641118  RH  066%=      5-min Rain = 0
KAM1 140719Z 13009KT M06/M12 A3029 RMK A01 T10641118  RH  066%=      5-min Rain = 0
KAM1 140720Z 13009KT M06/M12 A3029 RMK A01 T10641118  RH  066%=      5-min Rain = 0
KAM1 140721Z 13009KT M06/M12 A3029 RMK A01 T10641118  RH  066%=      5-min Rain = 0
KAM1 140722Z 13008KT M06/M12 A3029 RMK A01 T10641118  RH  066%=      5-min Rain = 0
KAM1 140723Z 13008KT M06/M12 A3029 RMK A01 T10641118  RH  066%=      5-min Rain = 0
KAM1 140724Z 13008KT M06/M12 A3029 RMK A01 T10641117  RH  066%=      5-min Rain = 0
KAM1 140725Z 13010KT M06/M12 A3029 RMK A01 T10641118  RH  066%=      5-min Rain = 0
KAM1 140726Z 13009KT M06/M12 A3029 RMK A01 T10641119  RH  065%=      5-min Rain = 0
KAM1 140727Z 13012KT M06/M12 A3029 RMK A01 T10641119  RH  065%=      5-min Rain = 0
KAM1 140728Z 13009KT M06/M12 A3029 RMK A01 T10641119  RH  065%=      5-min Rain = 0
KAM1 140729Z 13009KT M06/M12 A3029 RMK A01 T10641118  RH  065%=      5-min Rain = 0
KAM1 140730Z 13011KT M06/M12 A3029 RMK A01 T10641118  RH  065%=      5-min Rain = 0
KAM1 140731Z 13011KT M06/M12 A3029 RMK A01 T10641119  RH  065%=      5-min Rain = 0
KAM1 140732Z 13010KT M06/M12 A3029 RMK A01 T10641119  RH  065%=      5-min Rain = 0
KAM1 140733Z 14008KT M06/M12 A3029 RMK A01 T10641119  RH  065%=      5-min Rain = 0
KAM1 140734Z 14008KT M07/M12 A3029 RMK A01 T10651119  RH  065%=      5-min Rain = 0
KAM1 140735Z 13009KT M06/M12 A3029 RMK A01 T10641118  RH  066%=      5-min Rain = 0
KAM1 140736Z 13011KT M06/M12 A3029 RMK A01 T10641118  RH  066%=      5-min Rain = 0
KAM1 140737Z 13011KT M06/M12 A3029 RMK A01 T10641119  RH  065%=      5-min Rain = 0
KAM1 140738Z 13010KT M06/M12 A3029 RMK A01 T10641119  RH  065%=      5-min Rain = 0
KAM1 140739Z 14010KT M07/M12 A3029 RMK A01 T10651120  RH  065%=      5-min Rain = 0
KAM1 140740Z 14011KT M07/M12 A3029 RMK A01 T10651120  RH  065%=      5-min Rain = 0
KAM1 140741Z 13011KT M07/M12 A3029 RMK A01 T10651120  RH  065%=      5-min Rain = 0
KAM1 140742Z 14013KT M06/M12 A3029 RMK A01 T10641119  RH  065%=      5-min Rain = 0
KAM1 140743Z 13011KT M07/M12 A3029 RMK A01 T10651120  RH  065%=      5-min Rain = 0
KAM1 140744Z 13011KT M07/M12 A3029 RMK A01 T10651120  RH  065%=      5-min Rain = 0
KAM1 140745Z 13009KT M07/M12 A3029 RMK A01 T10651121  RH  065%=      5-min Rain = 0
KAM1 140746Z 13010KT M07/M12 A3029 RMK A01 T10651121  RH  065%=      5-min Rain = 0
KAM1 140747Z 13009KT M07/M12 A3029 RMK A01 T10651120  RH  065%=      5-min Rain = 0
KAM1 140748Z 13011KT M07/M12 A3029 RMK A01 T10651119  RH  065%=      5-min Rain = 0
KAM1 140749Z 14010KT M07/M12 A3029 RMK A01 T10651120  RH  065%=      5-min Rain = 0
KAM1 140750Z 14010KT M07/M12 A3029 RMK A01 T10651120  RH  065%=      5-min Rain = 0
KAM1 140751Z 13011KT M07/M12 A3029 RMK A01 T10661120  RH  065%=      5-min Rain = 0
KAM1 140752Z 13013KT M07/M12 A3029 RMK A01 T10651120  RH  065%=      5-min Rain = 0
KAM1 140753Z 13012KT M07/M12 A3029 RMK A01 T10651120  RH  065%=      5-min Rain = 0
KAM1 140754Z 13010KT M07/M12 A3029 RMK A01 T10661120  RH  065%=      5-min Rain = 0
KAM1 140755Z 14011KT M07/M12 A3029 RMK A01 T10661120  RH  066%=      5-min Rain = 0
KAM1 140756Z 13011KT M07/M12 A3029 RMK A01 T10661119  RH  066%=      5-min Rain = 0
KAM1 140757Z 13011KT M07/M12 A3029 RMK A01 T10661119  RH  066%=      5-min Rain = 0
KAM1 140758Z 13011KT M07/M12 A3029 RMK A01 T10661119  RH  066%=      5-min Rain = 0
KAM1 140759Z 13010KT M07/M12 A3029 RMK A01 T10661119  RH  066%=      5-min Rain = 0
KAM1 140800Z 13011KT M07/M12 A3029 RMK A01 T10661119  RH  066%=      5-min Rain = 0
KAM1 140801Z 13010KT M07/M12 A3029 RMK A01 T10661119  RH  066%=      5-min Rain = 0
KAM1 140802Z 13010KT M07/M12 A3029 RMK A01 T10661119  RH  066%=      5-min Rain = 0
KAM1 140803Z 13010KT M07/M12 A3029 RMK A01 T10661119  RH  066%=      5-min Rain = 0
KAM1 140804Z 13011KT M07/M12 A3029 RMK A01 T10661119  RH  066%=      5-min Rain = 0
KAM1 140805Z 13011KT M07/M12 A3029 RMK A01 T10661118  RH  066%=      5-min Rain = 0
KAM1 140806Z 13010KT M07/M12 A3029 RMK A01 T10661118  RH  066%=      5-min Rain = 0
KAM1 140807Z 13010KT M07/M12 A3029 RMK A01 T10661118  RH  066%=      5-min Rain = 0
KAM1 140808Z 13008KT M07/M12 A3029 RMK A01 T10661118  RH  066%=      5-min Rain = 0
KAM1 140809Z 14008KT M07/M12 A3029 RMK A01 T10661117  RH  067%=      5-min Rain = 0
KAM1 140810Z 14009KT M07/M12 A3029 RMK A01 T10661117  RH  067%=      5-min Rain = 0
KAM1 140811Z 14009KT M07/M12 A303 RMK A01 T10651116  RH  067%=      5-min Rain = 0
KAM1 140812Z 15010KT M07/M12 A303 RMK A01 T10651116  RH  067%=      5-min Rain = 0
KAM1 140813Z 14009KT M07/M12 A303 RMK A01 T10651116  RH  067%=      5-min Rain = 0
KAM1 140814Z 13009KT M07/M12 A303 RMK A01 T10651116  RH  067%=      5-min Rain = 0
KAM1 140815Z 13008KT M07/M12 A303 RMK A01 T10651115  RH  067%=      5-min Rain = 0
KAM1 140816Z 14010KT M07/M12 A3029 RMK A01 T10651115  RH  067%=      5-min Rain = 0
KAM1 140817Z 14009KT M07/M12 A3029 RMK A01 T10651116  RH  067%=      5-min Rain = 0
KAM1 140818Z 13010KT M07/M12 A3029 RMK A01 T10651116  RH  067%=      5-min Rain = 0
KAM1 140819Z 13009KT M07/M12 A3029 RMK A01 T10651116  RH  067%=      5-min Rain = 0
KAM1 140820Z 14009KT M07/M12 A3029 RMK A01 T10661117  RH  067%=      5-min Rain = 0
KAM1 140821Z 14011KT M07/M12 A3029 RMK A01 T10651116  RH  067%=      5-min Rain = 0
KAM1 140822Z 14011KT M07/M12 A3029 RMK A01 T10651117  RH  067%=      5-min Rain = 0
KAM1 140823Z 14010KT M07/M12 A3029 RMK A01 T10661117  RH  067%=      5-min Rain = 0
KAM1 140824Z 14010KT M07/M12 A3029 RMK A01 T10661117  RH  067%=      5-min Rain = 0
KAM1 140825Z 14010KT M07/M12 A3029 RMK A01 T10661118  RH  067%=      5-min Rain = 0
KAM1 140826Z 14011KT M07/M12 A3029 RMK A01 T10661118  RH  067%=      5-min Rain = 0
KAM1 140827Z 14011KT M07/M12 A3029 RMK A01 T10661118  RH  067%=      5-min Rain = 0
KAM1 140828Z 14009KT M07/M12 A3029 RMK A01 T10661117  RH  067%=      5-min Rain = 0
KAM1 140829Z 14010KT M07/M12 A3029 RMK A01 T10661117  RH  067%=      5-min Rain = 0
KAM1 140830Z 13011KT M07/M12 A3029 RMK A01 T10661117  RH  067%=      5-min Rain = 0
KAM1 140831Z 13012KT M07/M12 A3029 RMK A01 T10661117  RH  067%=      5-min Rain = 0
KAM1 140832Z 13011KT M07/M12 A3029 RMK A01 T10661117  RH  067%=      5-min Rain = 0
KAM1 140833Z 14009KT M07/M12 A3029 RMK A01 T10661117  RH  067%=      5-min Rain = 0
KAM1 140834Z 13009KT M07/M12 A3029 RMK A01 T10661116  RH  068%=      5-min Rain = 0
KAM1 140835Z 13011KT M07/M12 A3029 RMK A01 T10661116  RH  068%=      5-min Rain = 0
KAM1 140836Z 14010KT M07/M12 A3029 RMK A01 T10661116  RH  068%=      5-min Rain = 0
KAM1 140837Z 14011KT M07/M12 A3029 RMK A01 T10661116  RH  068%=      5-min Rain = 0
KAM1 140838Z 14010KT M07/M12 A3029 RMK A01 T10661117  RH  067%=      5-min Rain = 0
KAM1 140839Z 14010KT M07/M12 A3029 RMK A01 T10671117  RH  068%=      5-min Rain = 0
KAM1 140840Z 13010KT M07/M12 A3029 RMK A01 T10671117  RH  068%=      5-min Rain = 0
KAM1 140841Z 14009KT M07/M12 A3029 RMK A01 T10671116  RH  068%=      5-min Rain = 0
KAM1 140842Z 13010KT M07/M12 A3029 RMK A01 T10671116  RH  068%=      5-min Rain = 0
KAM1 140843Z 14009KT M07/M12 A3029 RMK A01 T10671116  RH  068%=      5-min Rain = 0
KAM1 140844Z 14008KT M07/M12 A3029 RMK A01 T10671116  RH  068%=      5-min Rain = 0
KAM1 140845Z 14008KT M07/M12 A3029 RMK A01 T10671116  RH  068%=      5-min Rain = 0
KAM1 140846Z 14008KT M07/M12 A3029 RMK A01 T10671116  RH  068%=      5-min Rain = 0
KAM1 140847Z 15008KT M07/M12 A3029 RMK A01 T10671115  RH  068%=      5-min Rain = 0
KAM1 140848Z 15008KT M07/M12 A3029 RMK A01 T10671116  RH  068%=      5-min Rain = 0
KAM1 140849Z 15008KT M07/M12 A3029 RMK A01 T10671116  RH  068%=      5-min Rain = 0
KAM1 140850Z 14008KT M07/M12 A3029 RMK A01 T10671116  RH  068%=      5-min Rain = 0
KAM1 140851Z 14007KT M07/M12 A3029 RMK A01 T10671115  RH  068%=      5-min Rain = 0
KAM1 140852Z 14007KT M07/M12 A3029 RMK A01 T10671115  RH  069%=      5-min Rain = 0
KAM1 140853Z 13008KT M07/M12 A3029 RMK A01 T10671115  RH  069%=      5-min Rain = 0
KAM1 140854Z 13008KT M07/M12 A3029 RMK A01 T10671115  RH  069%=      5-min Rain = 0
KAM1 140855Z 14007KT M07/M12 A3029 RMK A01 T10671115  RH  069%=      5-min Rain = 0
KAM1 140856Z 13008KT M07/M12 A3029 RMK A01 T10671115  RH  069%=      5-min Rain = 0
KAM1 140857Z 14007KT M07/M12 A3029 RMK A01 T10671115  RH  069%=      5-min Rain = 0
KAM1 140858Z 14008KT M07/M12 A3029 RMK A01 T10671115  RH  069%=      5-min Rain = 0
KAM1 140859Z 14007KT M07/M12 A3029 RMK A01 T10671116  RH  068%=      5-min Rain = 0
KAM1 140900Z 13007KT M07/M12 A3029 RMK A01 T10681116  RH  068%=      5-min Rain = 0
KAM1 140901Z 13008KT M07/M12 A3029 RMK A01 T10681116  RH  068%=      5-min Rain = 0
KAM1 140902Z 14007KT M07/M12 A3029 RMK A01 T10671116  RH  068%=      5-min Rain = 0
KAM1 140903Z 14006KT M07/M12 A3029 RMK A01 T10681116  RH  069%=      5-min Rain = 0
KAM1 140904Z 14007KT M07/M12 A3029 RMK A01 T10681115  RH  069%=      5-min Rain = 0
KAM1 140905Z 14007KT M07/M12 A3029 RMK A01 T10681115  RH  069%=      5-min Rain = 0
KAM1 140906Z 14008KT M07/M12 A3029 RMK A01 T10681116  RH  069%=      5-min Rain = 0
KAM1 140907Z 15006KT M07/M12 A3029 RMK A01 T10681117  RH  068%=      5-min Rain = 0
KAM1 140908Z 14008KT M07/M12 A3029 RMK A01 T10681116  RH  069%=      5-min Rain = 0
KAM1 140909Z 15007KT M07/M12 A3029 RMK A01 T10681116  RH  069%=      5-min Rain = 0
KAM1 140910Z 15006KT M07/M12 A3029 RMK A01 T10681115  RH  069%=      5-min Rain = 0
KAM1 140911Z 14006KT M07/M12 A3029 RMK A01 T10681115  RH  069%=      5-min Rain = 0
KAM1 140912Z 14007KT M07/M11 A3029 RMK A01 T10681114  RH  069%=      5-min Rain = 0
KAM1 140913Z 14006KT M07/M11 A3029 RMK A01 T10671114  RH  069%=      5-min Rain = 0
KAM1 140914Z 14007KT M07/M11 A3029 RMK A01 T10681114  RH  069%=      5-min Rain = 0
KAM1 140915Z 14007KT M07/M12 A3029 RMK A01 T10681115  RH  069%=      5-min Rain = 0
KAM1 140916Z 15006KT M07/M12 A3029 RMK A01 T10681115  RH  069%=      5-min Rain = 0
KAM1 140917Z 15007KT M07/M12 A3029 RMK A01 T10681115  RH  069%=      5-min Rain = 0
KAM1 140918Z 15007KT M07/M12 A3029 RMK A01 T10681116  RH  069%=      5-min Rain = 0
KAM1 140919Z 15007KT M07/M12 A3029 RMK A01 T10681115  RH  069%=      5-min Rain = 0
KAM1 140920Z 15008KT M07/M12 A3029 RMK A01 T10681116  RH  069%=      5-min Rain = 0
KAM1 140921Z 14006KT M07/M12 A3029 RMK A01 T10681115  RH  069%=      5-min Rain = 0
KAM1 140922Z 14006KT M07/M11 A3029 RMK A01 T10681114  RH  070%=      5-min Rain = 0
KAM1 140923Z 16006KT M07/M11 A3029 RMK A01 T10681114  RH  070%=      5-min Rain = 0
KAM1 140924Z 15007KT M07/M11 A3029 RMK A01 T10681114  RH  070%=      5-min Rain = 0
KAM1 140925Z 16006KT M07/M11 A3029 RMK A01 T10681114  RH  070%=      5-min Rain = 0
KAM1 140926Z 15007KT M07/M11 A3029 RMK A01 T10681114  RH  069%=      5-min Rain = 0
KAM1 140927Z 16007KT M07/M11 A3029 RMK A01 T10681114  RH  070%=      5-min Rain = 0
KAM1 140928Z 15006KT M07/M11 A3029 RMK A01 T10681114  RH  070%=      5-min Rain = 0
KAM1 140929Z 16006KT M07/M11 A3029 RMK A01 T10681114  RH  070%=      5-min Rain = 0
KAM1 140930Z 16007KT M07/M11 A3028 RMK A01 T10681114  RH  069%=      5-min Rain = 0
KAM1 140931Z 17007KT M07/M12 A3028 RMK A01 T10681115  RH  069%=      5-min Rain = 0
KAM1 140932Z 16006KT M07/M11 A3028 RMK A01 T10681114  RH  069%=      5-min Rain = 0
KAM1 140933Z 15007KT M07/M11 A3028 RMK A01 T10681114  RH  070%=      5-min Rain = 0
KAM1 140934Z 15006KT M07/M11 A3028 RMK A01 T10681114  RH  070%=      5-min Rain = 0
KAM1 140935Z 16005KT M07/M11 A3028 RMK A01 T10681114  RH  070%=      5-min Rain = 0
KAM1 140936Z 16005KT M07/M11 A3028 RMK A01 T10681114  RH  070%=      5-min Rain = 0
KAM1 140937Z 16007KT M07/M11 A3028 RMK A01 T10671113  RH  070%=      5-min Rain = 0
KAM1 140938Z 15006KT M07/M11 A3028 RMK A01 T10671113  RH  070%=      5-min Rain = 0
KAM1 140939Z 17006KT M07/M11 A3028 RMK A01 T10671113  RH  070%=      5-min Rain = 0
KAM1 140940Z 16006KT M07/M11 A3028 RMK A01 T10671113  RH  070%=      5-min Rain = 0
KAM1 140941Z 16006KT M07/M11 A3028 RMK A01 T10671113  RH  070%=      5-min Rain = 0
KAM1 140942Z 15006KT M07/M11 A3028 RMK A01 T10671112  RH  070%=      5-min Rain = 0
KAM1 140943Z 15008KT M07/M11 A3028 RMK A01 T10671112  RH  070%=      5-min Rain = 0
KAM1 140944Z 15007KT M07/M11 A3028 RMK A01 T10671113  RH  070%=      5-min Rain = 0
KAM1 140945Z 15006KT M07/M11 A3028 RMK A01 T10681114  RH  070%=      5-min Rain = 0
KAM1 140946Z 15007KT M07/M11 A3028 RMK A01 T10681113  RH  070%=      5-min Rain = 0
KAM1 140947Z 15007KT M07/M11 A3028 RMK A01 T10671113  RH  070%=      5-min Rain = 0
KAM1 140948Z 16007KT M07/M11 A3028 RMK A01 T10671113  RH  070%=      5-min Rain = 0
KAM1 140949Z 17007KT M07/M11 A3028 RMK A01 T10681113  RH  070%=      5-min Rain = 0
KAM1 140950Z 16006KT M07/M11 A3028 RMK A01 T10681113  RH  070%=      5-min Rain = 0
KAM1 140951Z 15007KT M07/M11 A3028 RMK A01 T10681112  RH  071%=      5-min Rain = 0
KAM1 140952Z 16008KT M07/M11 A3028 RMK A01 T10671112  RH  071%=      5-min Rain = 0
KAM1 140953Z 16008KT M07/M11 A3028 RMK A01 T10671112  RH  070%=      5-min Rain = 0
KAM1 140954Z 16007KT M07/M11 A3028 RMK A01 T10671112  RH  070%=      5-min Rain = 0
KAM1 140955Z 16008KT M07/M11 A3028 RMK A01 T10671112  RH  070%=      5-min Rain = 0
KAM1 140956Z 16008KT M07/M11 A3028 RMK A01 T10671112  RH  070%=      5-min Rain = 0
KAM1 140957Z 15007KT M07/M11 A3028 RMK A01 T10671112  RH  070%=      5-min Rain = 0
KAM1 140958Z 16006KT M07/M11 A3028 RMK A01 T10671112  RH  071%=      5-min Rain = 0
KAM1 140959Z 16007KT M07/M11 A3028 RMK A01 T10671111  RH  071%=      5-min Rain = 0
KAM1 141000Z 16006KT M07/M11 A3028 RMK A01 T10671111  RH  071%=      5-min Rain = 0
KAM1 141001Z 16007KT M07/M11 A3028 RMK A01 T10671111  RH  071%=      5-min Rain = 0
KAM1 141002Z 16007KT M07/M11 A3028 RMK A01 T10671111  RH  071%=      5-min Rain = 0
KAM1 141003Z 15007KT M07/M11 A3028 RMK A01 T10671111  RH  071%=      5-min Rain = 0
KAM1 141004Z 15006KT M07/M11 A3028 RMK A01 T10671111  RH  071%=      5-min Rain = 0
KAM1 141005Z 16006KT M07/M11 A3028 RMK A01 T10671111  RH  071%=      5-min Rain = 0
KAM1 141006Z 15006KT M07/M11 A3028 RMK A01 T10671110  RH  071%=      5-min Rain = 0
KAM1 141007Z 16005KT M07/M11 A3028 RMK A01 T10671110  RH  071%=      5-min Rain = 0
KAM1 141008Z 15007KT M07/M11 A3028 RMK A01 T10671110  RH  072%=      5-min Rain = 0
KAM1 141009Z 16007KT M07/M11 A3028 RMK A01 T10671110  RH  072%=      5-min Rain = 0
KAM1 141010Z 16007KT M07/M11 A3028 RMK A01 T10671110  RH  072%=      5-min Rain = 0
KAM1 141011Z 15007KT M07/M11 A3028 RMK A01 T10671110  RH  071%=      5-min Rain = 0
KAM1 141012Z 15006KT M07/M11 A3028 RMK A01 T10671110  RH  071%=      5-min Rain = 0
KAM1 141013Z 15007KT M07/M11 A3027 RMK A01 T10671110  RH  071%=      5-min Rain = 0
KAM1 141014Z 16006KT M07/M11 A3027 RMK A01 T10671109  RH  072%=      5-min Rain = 0
KAM1 141015Z 15007KT M07/M11 A3027 RMK A01 T10671109  RH  072%=      5-min Rain = 0
KAM1 141016Z 15007KT M07/M11 A3027 RMK A01 T10671109  RH  072%=      5-min Rain = 0
KAM1 141017Z 16007KT M07/M11 A3027 RMK A01 T10671109  RH  072%=      5-min Rain = 0
KAM1 141018Z 16007KT M07/M11 A3027 RMK A01 T10661108  RH  072%=      5-min Rain = 0
KAM1 141019Z 15006KT M07/M11 A3027 RMK A01 T10661108  RH  072%=      5-min Rain = 0
KAM1 141020Z 16007KT M07/M11 A3027 RMK A01 T10661108  RH  072%=      5-min Rain = 0
KAM1 141021Z 16006KT M07/M11 A3027 RMK A01 T10661108  RH  072%=      5-min Rain = 0
KAM1 141022Z 16006KT M07/M11 A3027 RMK A01 T10661107  RH  072%=      5-min Rain = 0
KAM1 141023Z 16007KT M07/M11 A3027 RMK A01 T10661107  RH  073%=      5-min Rain = 0
KAM1 141024Z 15007KT M07/M11 A3027 RMK A01 T10661107  RH  072%=      5-min Rain = 0
KAM1 141025Z 15007KT M07/M11 A3027 RMK A01 T10661108  RH  072%=      5-min Rain = 0
KAM1 141026Z 16006KT M07/M11 A3027 RMK A01 T10661108  RH  072%=      5-min Rain = 0
KAM1 141027Z 15006KT M07/M11 A3027 RMK A01 T10661108  RH  072%=      5-min Rain = 0
KAM1 141028Z 15006KT M07/M11 A3027 RMK A01 T10661108  RH  072%=      5-min Rain = 0
KAM1 141029Z 15008KT M07/M11 A3027 RMK A01 T10661108  RH  072%=      5-min Rain = 0
KAM1 141030Z 15008KT M07/M11 A3027 RMK A01 T10661108  RH  072%=      5-min Rain = 0
KAM1 141031Z 15006KT M07/M11 A3027 RMK A01 T10661107  RH  072%=      5-min Rain = 0
KAM1 141032Z 16006KT M07/M11 A3027 RMK A01 T10661107  RH  073%=      5-min Rain = 0
KAM1 141033Z 16007KT M07/M11 A3027 RMK A01 T10651106  RH  073%=      5-min Rain = 0
KAM1 141034Z 17006KT M07/M11 A3027 RMK A01 T10651106  RH  073%=      5-min Rain = 0
KAM1 141035Z 16008KT M07/M11 A3027 RMK A01 T10651106  RH  073%=      5-min Rain = 0
KAM1 141036Z 16006KT M07/M11 A3027 RMK A01 T10651106  RH  073%=      5-min Rain = 0
KAM1 141037Z 15006KT M07/M11 A3027 RMK A01 T10651106  RH  073%=      5-min Rain = 0
KAM1 141038Z 15006KT M07/M11 A3027 RMK A01 T10651106  RH  072%=      5-min Rain = 0
KAM1 141039Z 15007KT M07/M11 A3027 RMK A01 T10651107  RH  072%=      5-min Rain = 0
KAM1 141040Z 15007KT M07/M11 A3027 RMK A01 T10661108  RH  072%=      5-min Rain = 0
KAM1 141041Z 15007KT M07/M11 A3027 RMK A01 T10661107  RH  072%=      5-min Rain = 0
KAM1 141042Z 15007KT M07/M11 A3027 RMK A01 T10661107  RH  073%=      5-min Rain = 0
KAM1 141043Z 15007KT M07/M11 A3027 RMK A01 T10661107  RH  073%=      5-min Rain = 0
KAM1 141044Z 15007KT M07/M11 A3027 RMK A01 T10661107  RH  073%=      5-min Rain = 0
KAM1 141045Z 14008KT M07/M11 A3027 RMK A01 T10661107  RH  073%=      5-min Rain = 0
KAM1 141046Z 15008KT M07/M11 A3027 RMK A01 T10661107  RH  073%=      5-min Rain = 0
KAM1 141047Z 15009KT M07/M11 A3027 RMK A01 T10661107  RH  073%=      5-min Rain = 0
KAM1 141048Z 15008KT M07/M11 A3027 RMK A01 T10661107  RH  073%=      5-min Rain = 0
KAM1 141049Z 14007KT M07/M11 A3027 RMK A01 T10671107  RH  073%=      5-min Rain = 0
KAM1 141050Z 15008KT M07/M11 A3027 RMK A01 T10671108  RH  073%=      5-min Rain = 0
KAM1 141051Z 16007KT M07/M11 A3027 RMK A01 T10671108  RH  073%=      5-min Rain = 0
KAM1 141052Z 15007KT M07/M11 A3027 RMK A01 T10671107  RH  073%=      5-min Rain = 0
KAM1 141053Z 15008KT M07/M11 A3027 RMK A01 T10671107  RH  073%=      5-min Rain = 0
KAM1 141054Z 16007KT M07/M11 A3027 RMK A01 T10671108  RH  073%=      5-min Rain = 0
KAM1 141055Z 15006KT M07/M11 A3027 RMK A01 T10671108  RH  073%=      5-min Rain = 0
KAM1 141056Z 15006KT M07/M11 A3027 RMK A01 T10671107  RH  073%=      5-min Rain = 0
KAM1 141057Z 15007KT M07/M11 A3027 RMK A01 T10671106  RH  074%=      5-min Rain = 0
KAM1 141058Z 15007KT M07/M11 A3027 RMK A01 T10671107  RH  073%=      5-min Rain = 0
KAM1 141059Z 16007KT M07/M11 A3027 RMK A01 T10671107  RH  073%=      5-min Rain = 0
KAM1 141100Z 15007KT M07/M11 A3027 RMK A01 T10671107  RH  073%=      5-min Rain = 0
KAM1 141101Z 15007KT M07/M11 A3027 RMK A01 T10671107  RH  073%=      5-min Rain = 0
KAM1 141102Z 15006KT M07/M11 A3027 RMK A01 T10671107  RH  074%=      5-min Rain = 0
KAM1 141103Z 15006KT M07/M11 A3027 RMK A01 T10671106  RH  074%=      5-min Rain = 0
KAM1 141104Z 15007KT M07/M11 A3027 RMK A01 T10671106  RH  074%=      5-min Rain = 0
KAM1 141105Z 15006KT M07/M11 A3027 RMK A01 T10671106  RH  074%=      5-min Rain = 0
KAM1 141106Z 15006KT M07/M11 A3027 RMK A01 T10671105  RH  074%=      5-min Rain = 0
KAM1 141107Z 16006KT M07/M11 A3027 RMK A01 T10671105  RH  074%=      5-min Rain = 0
KAM1 141108Z 16005KT M07/M11 A3027 RMK A01 T10661105  RH  074%=      5-min Rain = 0
KAM1 141109Z 15006KT M07/M11 A3027 RMK A01 T10671105  RH  074%=      5-min Rain = 0
KAM1 141110Z 16006KT M07/M11 A3027 RMK A01 T10661105  RH  074%=      5-min Rain = 0
KAM1 141111Z 16006KT M07/M10 A3027 RMK A01 T10661104  RH  074%=      5-min Rain = 0
KAM1 141112Z 15007KT M07/M10 A3027 RMK A01 T10661104  RH  074%=      5-min Rain = 0
KAM1 141113Z 15006KT M07/M10 A3027 RMK A01 T10661104  RH  074%=      5-min Rain = 0
KAM1 141114Z 15007KT M07/M10 A3027 RMK A01 T10661104  RH  074%=      5-min Rain = 0
KAM1 141115Z 16007KT M07/M11 A3027 RMK A01 T10661105  RH  074%=      5-min Rain = 0
KAM1 141116Z 15007KT M07/M11 A3027 RMK A01 T10661105  RH  074%=      5-min Rain = 0
KAM1 141117Z 15006KT M07/M11 A3027 RMK A01 T10671106  RH  074%=      5-min Rain = 0
KAM1 141118Z 15007KT M07/M11 A3027 RMK A01 T10671105  RH  074%=      5-min Rain = 0
KAM1 141119Z 15005KT M07/M11 A3027 RMK A01 T10671105  RH  074%=      5-min Rain = 0
KAM1 141120Z 15008KT M07/M11 A3027 RMK A01 T10671105  RH  074%=      5-min Rain = 0
KAM1 141121Z 17008KT M07/M10 A3027 RMK A01 T10671104  RH  075%=      5-min Rain = 0
KAM1 141122Z 16007KT M07/M10 A3027 RMK A01 T10661104  RH  075%=      5-min Rain = 0
KAM1 141123Z 15006KT M07/M10 A3027 RMK A01 T10661103  RH  075%=      5-min Rain = 0
KAM1 141124Z 16006KT M07/M10 A3027 RMK A01 T10661103  RH  075%=      5-min Rain = 0
KAM1 141125Z 14006KT M07/M10 A3027 RMK A01 T10661103  RH  075%=      5-min Rain = 0
KAM1 141126Z 15008KT M07/M10 A3027 RMK A01 T10661103  RH  075%=      5-min Rain = 0
KAM1 141127Z 15008KT M07/M10 A3027 RMK A01 T10661103  RH  075%=      5-min Rain = 0
KAM1 141128Z 16007KT M07/M10 A3027 RMK A01 T10661104  RH  075%=      5-min Rain = 0
KAM1 141129Z 14007KT M07/M10 A3027 RMK A01 T10661104  RH  075%=      5-min Rain = 0
KAM1 141130Z 15007KT M07/M10 A3027 RMK A01 T10661104  RH  075%=      5-min Rain = 0
KAM1 141131Z 15008KT M07/M10 A3027 RMK A01 T10661103  RH  075%=      5-min Rain = 0
KAM1 141132Z 16008KT M07/M10 A3027 RMK A01 T10661104  RH  075%=      5-min Rain = 0
KAM1 141133Z 15007KT M07/M10 A3027 RMK A01 T10661104  RH  075%=      5-min Rain = 0
KAM1 141134Z 16008KT M07/M10 A3027 RMK A01 T10661104  RH  075%=      5-min Rain = 0
KAM1 141135Z 15007KT M07/M10 A3027 RMK A01 T10661104  RH  075%=      5-min Rain = 0
KAM1 141136Z 16006KT M07/M10 A3027 RMK A01 T10671104  RH  075%=      5-min Rain = 0
KAM1 141137Z 15006KT M07/M10 A3027 RMK A01 T10671104  RH  075%=      5-min Rain = 0
KAM1 141138Z 16008KT M07/M10 A3027 RMK A01 T10661103  RH  075%=      5-min Rain = 0
KAM1 141139Z 15007KT M07/M10 A3027 RMK A01 T10661103  RH  075%=      5-min Rain = 0
KAM1 141140Z 15007KT M07/M10 A3027 RMK A01 T10661103  RH  075%=      5-min Rain = 0
KAM1 141141Z 16008KT M07/M10 A3027 RMK A01 T10661103  RH  075%=      5-min Rain = 0
KAM1 141142Z 15008KT M07/M10 A3027 RMK A01 T10661103  RH  075%=      5-min Rain = 0
KAM1 141143Z 15007KT M07/M10 A3027 RMK A01 T10661104  RH  075%=      5-min Rain = 0
KAM1 141144Z 15008KT M07/M10 A3027 RMK A01 T10661103  RH  075%=      5-min Rain = 0
KAM1 141145Z 15007KT M07/M10 A3027 RMK A01 T10671104  RH  075%=      5-min Rain = 0
KAM1 141146Z 15007KT M07/M10 A3027 RMK A01 T10671104  RH  075%=      5-min Rain = 0
KAM1 141147Z 16009KT M07/M10 A3027 RMK A01 T10671103  RH  075%=      5-min Rain = 0
KAM1 141148Z 15008KT M07/M10 A3027 RMK A01 T10671104  RH  075%=      5-min Rain = 0
KAM1 141149Z 15008KT M07/M10 A3027 RMK A01 T10671103  RH  075%=      5-min Rain = 0
KAM1 141150Z 15010KT M07/M10 A3027 RMK A01 T10671103  RH  075%=      5-min Rain = 0
KAM1 141151Z 15010KT M07/M10 A3027 RMK A01 T10671103  RH  075%=      5-min Rain = 0
KAM1 141152Z 16008KT M07/M10 A3027 RMK A01 T10671104  RH  075%=      5-min Rain = 0
KAM1 141153Z 15007KT M07/M10 A3027 RMK A01 T10671104  RH  075%=      5-min Rain = 0
KAM1 141154Z 16006KT M07/M10 A3027 RMK A01 T10671103  RH  076%=      5-min Rain = 0
KAM1 141155Z 16008KT M07/M10 A3027 RMK A01 T10671103  RH  076%=      5-min Rain = 0
KAM1 141156Z 16007KT M07/M10 A3027 RMK A01 T10671103  RH  076%=      5-min Rain = 0
KAM1 141157Z 15008KT M07/M10 A3027 RMK A01 T10671103  RH  076%=      5-min Rain = 0
KAM1 141158Z 16009KT M07/M10 A3027 RMK A01 T10671103  RH  075%=      5-min Rain = 0
KAM1 141159Z 16008KT M07/M10 A3027 RMK A01 T10671103  RH  075%=      5-min Rain = 0
KAM1 141200Z 17008KT M07/M10 A3027 RMK A01 T10671103  RH  075%=      5-min Rain = 0
KAM1 141201Z 16007KT M07/M10 A3027 RMK A01 T10671103  RH  076%=      5-min Rain = 0
KAM1 141202Z 17007KT M07/M10 A3027 RMK A01 T10661102  RH  076%=      5-min Rain = 0
KAM1 141203Z 17009KT M07/M10 A3027 RMK A01 T10661102  RH  076%=      5-min Rain = 0
KAM1 141204Z 16008KT M07/M10 A3027 RMK A01 T10661101  RH  076%=      5-min Rain = 0
KAM1 141205Z 16006KT M07/M10 A3027 RMK A01 T10651101  RH  076%=      5-min Rain = 0
KAM1 141206Z 16007KT M07/M10 A3027 RMK A01 T10651101  RH  076%=      5-min Rain = 0
KAM1 141207Z 17006KT M07/M10 A3027 RMK A01 T10651101  RH  076%=      5-min Rain = 0
KAM1 141208Z 17006KT M07/M10 A3027 RMK A01 T10651101  RH  076%=      5-min Rain = 0
KAM1 141209Z 17006KT M07/M10 A3027 RMK A01 T10651100  RH  076%=      5-min Rain = 0
KAM1 141210Z 16007KT M07/M10 A3027 RMK A01 T10651100  RH  076%=      5-min Rain = 0
KAM1 141211Z 16010KT M07/M10 A3027 RMK A01 T10651100  RH  076%=      5-min Rain = 0
KAM1 141212Z 16011KT M07/M10 A3027 RMK A01 T10651101  RH  076%=      5-min Rain = 0
KAM1 141213Z 17010KT M07/M10 A3027 RMK A01 T10661102  RH  075%=      5-min Rain = 0
KAM1 141214Z 17008KT M07/M10 A3027 RMK A01 T10661102  RH  076%=      5-min Rain = 0
KAM1 141215Z 17007KT M07/M10 A3027 RMK A01 T10661101  RH  076%=      5-min Rain = 0
KAM1 141216Z 17006KT M07/M10 A3027 RMK A01 T10661101  RH  076%=      5-min Rain = 0
KAM1 141217Z 17007KT M07/M10 A3027 RMK A01 T10661100  RH  077%=      5-min Rain = 0
KAM1 141218Z 16009KT M07/M10 A3027 RMK A01 T10651100  RH  077%=      5-min Rain = 0
KAM1 141219Z 16010KT M07/M10 A3027 RMK A01 T10651100  RH  076%=      5-min Rain = 0
KAM1 141220Z 17010KT M07/M10 A3027 RMK A01 T10651100  RH  076%=      5-min Rain = 0
KAM1 141221Z 17011KT M07/M10 A3027 RMK A01 T10661101  RH  076%=      5-min Rain = 0
KAM1 141222Z 17010KT M07/M10 A3027 RMK A01 T10661101  RH  076%=      5-min Rain = 0
KAM1 141223Z 17008KT M07/M10 A3027 RMK A01 T10661101  RH  076%=      5-min Rain = 0
KAM1 141224Z 17008KT M07/M10 A3027 RMK A01 T10661100  RH  077%=      5-min Rain = 0
KAM1 141225Z 17009KT M07/M10 A3027 RMK A01 T10661100  RH  077%=      5-min Rain = 0
KAM1 141226Z 17009KT M07/M10 A3027 RMK A01 T10661100  RH  077%=      5-min Rain = 0
KAM1 141227Z 17009KT M07/M10 A3026 RMK A01 T10661100  RH  077%=      5-min Rain = 0
KAM1 141228Z 17008KT M07/M10 A3027 RMK A01 T10661100  RH  077%=      5-min Rain = 0
KAM1 141229Z 17009KT M07/M10 A3027 RMK A01 T10661100  RH  077%=      5-min Rain = 0
KAM1 141230Z 16011KT M07/M10 A3026 RMK A01 T10661100  RH  077%=      5-min Rain = 0
KAM1 141231Z 17010KT M07/M10 A3026 RMK A01 T10661100  RH  077%=      5-min Rain = 0
KAM1 141232Z 17010KT M07/M10 A3026 RMK A01 T10661100  RH  077%=      5-min Rain = 0
KAM1 141233Z 17009KT M07/M10 A3027 RMK A01 T10661100  RH  077%=      5-min Rain = 0
KAM1 141234Z 17010KT M07/M10 A3027 RMK A01 T10661100  RH  077%=      5-min Rain = 0
KAM1 141235Z 17011KT M07/M10 A3027 RMK A01 T10661100  RH  077%=      5-min Rain = 0
KAM1 141236Z 17010KT M07/M10 A3027 RMK A01 T10661100  RH  077%=      5-min Rain = 0
KAM1 141237Z 17011KT M07/M10 A3026 RMK A01 T10661100  RH  077%=      5-min Rain = 0
KAM1 141238Z 18010KT M07/M10 A3027 RMK A01 T10661100  RH  077%=      5-min Rain = 0
KAM1 141239Z 17010KT M07/M10 A3027 RMK A01 T10661099  RH  077%=      5-min Rain = 0
KAM1 141240Z 17012KT M07/M10 A3027 RMK A01 T10661099  RH  077%=      5-min Rain = 0
KAM1 141241Z 17009KT M07/M10 A3027 RMK A01 T10661099  RH  077%=      5-min Rain = 0
KAM1 141242Z 17009KT M07/M10 A3027 RMK A01 T10661099  RH  077%=      5-min Rain = 0
KAM1 141243Z 17010KT M07/M10 A3027 RMK A01 T10651098  RH  077%=      5-min Rain = 0
KAM1 141244Z 17009KT M07/M10 A3027 RMK A01 T10651098  RH  077%=      5-min Rain = 0
KAM1 141245Z 17008KT M07/M10 A3027 RMK A01 T10661098  RH  078%=      5-min Rain = 0
KAM1 141246Z 17011KT M07/M10 A3027 RMK A01 T10651098  RH  078%=      5-min Rain = 0
KAM1 141247Z 17011KT M07/M10 A3027 RMK A01 T10651098  RH  078%=      5-min Rain = 0
KAM1 141248Z 16008KT M07/M10 A3027 RMK A01 T10651098  RH  077%=      5-min Rain = 0
KAM1 141249Z 16011KT M07/M10 A3027 RMK A01 T10651098  RH  078%=      5-min Rain = 0
KAM1 141250Z 17011KT M07/M10 A3027 RMK A01 T10651098  RH  078%=      5-min Rain = 0
KAM1 141251Z 17011KT M07/M10 A3027 RMK A01 T10651097  RH  078%=      5-min Rain = 0
KAM1 141252Z 16010KT M07/M10 A3027 RMK A01 T10651098  RH  078%=      5-min Rain = 0
KAM1 141253Z 17010KT M07/M10 A3027 RMK A01 T10651097  RH  078%=      5-min Rain = 0
KAM1 141254Z 17010KT M07/M10 A3027 RMK A01 T10651097  RH  078%=      5-min Rain = 0
KAM1 141255Z 17008KT M07/M10 A3027 RMK A01 T10651097  RH  078%=      5-min Rain = 0
KAM1 141256Z 18008KT M06/M10 A3027 RMK A01 T10641096  RH  078%=      5-min Rain = 0
KAM1 141257Z 17008KT M07/M10 A3027 RMK A01 T10651096  RH  078%=      5-min Rain = 0
KAM1 141258Z 17009KT M06/M10 A3027 RMK A01 T10641096  RH  078%=      5-min Rain = 0
KAM1 141259Z 17010KT M06/M10 A3026 RMK A01 T10641096  RH  078%=      5-min Rain = 0
KAM1 141300Z 18011KT M06/M10 A3026 RMK A01 T10641096  RH  078%=      5-min Rain = 0
KAM1 141301Z 18009KT M06/M10 A3026 RMK A01 T10641096  RH  078%=      5-min Rain = 0
KAM1 141302Z 18009KT M06/M10 A3026 RMK A01 T10641096  RH  079%=      5-min Rain = 0
KAM1 141303Z 18009KT M06/M10 A3026 RMK A01 T10641095  RH  079%=      5-min Rain = 0
KAM1 141304Z 17008KT M06/M09 A3026 RMK A01 T10631094  RH  079%=      5-min Rain = 0
KAM1 141305Z 17010KT M06/M09 A3026 RMK A01 T10631094  RH  079%=      5-min Rain = 0
KAM1 141306Z 17013KT M06/M09 A3026 RMK A01 T10631094  RH  079%=      5-min Rain = 0
KAM1 141307Z 17012KT M06/M10 A3026 RMK A01 T10631095  RH  078%=      5-min Rain = 0
KAM1 141308Z 17011KT M06/M10 A3026 RMK A01 T10631095  RH  078%=      5-min Rain = 0
KAM1 141309Z 17010KT M06/M10 A3026 RMK A01 T10631095  RH  078%=      5-min Rain = 0
KAM1 141310Z 17009KT M06/M10 A3026 RMK A01 T10631095  RH  078%=      5-min Rain = 0
KAM1 141311Z 17011KT M06/M09 A3026 RMK A01 T10631094  RH  079%=      5-min Rain = 0
KAM1 141312Z 17012KT M06/M09 A3026 RMK A01 T10631094  RH  078%=      5-min Rain = 0
KAM1 141313Z 17011G16KT M06/M10 A3026 RMK A01 T10631095  RH  078%=      5-min Rain = 0
KAM1 141314Z 17010KT M06/M10 A3026 RMK A01 T10631095  RH  078%=      5-min Rain = 0
KAM1 141315Z 18011KT M06/M10 A3026 RMK A01 T10631095  RH  078%=      5-min Rain = 0
KAM1 141316Z 17011KT M06/M10 A3026 RMK A01 T10631095  RH  078%=      5-min Rain = 0
KAM1 141317Z 17011KT M06/M10 A3026 RMK A01 T10631095  RH  078%=      5-min Rain = 0
KAM1 141318Z 17009KT M06/M10 A3026 RMK A01 T10631095  RH  078%=      5-min Rain = 0
KAM1 141319Z 18011KT M06/M09 A3026 RMK A01 T10621094  RH  078%=      5-min Rain = 0
KAM1 141320Z 17012KT M06/M09 A3026 RMK A01 T10621094  RH  078%=      5-min Rain = 0
KAM1 141321Z 17011KT M06/M09 A3026 RMK A01 T10621094  RH  078%=      5-min Rain = 0
KAM1 141322Z 17012KT M06/M09 A3026 RMK A01 T10621094  RH  078%=      5-min Rain = 0
KAM1 141323Z 17012KT M06/M09 A3026 RMK A01 T10621093  RH  078%=      5-min Rain = 0
KAM1 141324Z 17013KT M06/M09 A3026 RMK A01 T10621093  RH  078%=      5-min Rain = 0
KAM1 141325Z 17012KT M06/M09 A3027 RMK A01 T10621093  RH  079%=      5-min Rain = 0
KAM1 141326Z 18011KT M06/M09 A3027 RMK A01 T10621093  RH  079%=      5-min Rain = 0
KAM1 141327Z 18010KT M06/M09 A3027 RMK A01 T10621092  RH  079%=      5-min Rain = 0
KAM1 141328Z 18012KT M06/M09 A3027 RMK A01 T10621092  RH  079%=      5-min Rain = 0
KAM1 141329Z 17012KT M06/M09 A3027 RMK A01 T10621092  RH  079%=      5-min Rain = 0
KAM1 141330Z 17012KT M06/M09 A3027 RMK A01 T10621092  RH  079%=      5-min Rain = 0
KAM1 141331Z 18010KT M06/M09 A3027 RMK A01 T10621092  RH  079%=      5-min Rain = 0
KAM1 141332Z 18010KT M06/M09 A3027 RMK A01 T10621091  RH  080%=      5-min Rain = 0
KAM1 141333Z 18009KT M06/M09 A3027 RMK A01 T10621091  RH  080%=      5-min Rain = 0
KAM1 141334Z 18011KT M06/M09 A3027 RMK A01 T10611090  RH  080%=      5-min Rain = 0
KAM1 141335Z 18011KT M06/M09 A3027 RMK A01 T10611090  RH  080%=      5-min Rain = 0
KAM1 141336Z 18009KT M06/M09 A3027 RMK A01 T10611089  RH  080%=      5-min Rain = 0
KAM1 141337Z 18010KT M06/M09 A3027 RMK A01 T10601089  RH  081%=      5-min Rain = 0
KAM1 141338Z 18012KT M06/M09 A3027 RMK A01 T10601089  RH  081%=      5-min Rain = 0
KAM1 141339Z 18014KT M06/M09 A3027 RMK A01 T10601089  RH  080%=      5-min Rain = 0
KAM1 141340Z 18012KT M06/M09 A3027 RMK A01 T10611089  RH  080%=      5-min Rain = 0
KAM1 141341Z 18009KT M06/M09 A3027 RMK A01 T10601089  RH  080%=      5-min Rain = 0
KAM1 141342Z 18012KT M06/M09 A3027 RMK A01 T10601088  RH  081%=      5-min Rain = 0
KAM1 141343Z 18011KT M06/M09 A3027 RMK A01 T10601088  RH  081%=      5-min Rain = 0
KAM1 141344Z 19010KT M06/M09 A3027 RMK A01 T10591088  RH  081%=      5-min Rain = 0
KAM1 141345Z 18011KT M06/M09 A3027 RMK A01 T10601088  RH  081%=      5-min Rain = 0
KAM1 141346Z 18014KT M06/M09 A3027 RMK A01 T10591087  RH  081%=      5-min Rain = 0
KAM1 141347Z 18011KT M06/M09 A3027 RMK A01 T10601087  RH  081%=      5-min Rain = 0
KAM1 141348Z 18012KT M06/M09 A3027 RMK A01 T10591087  RH  081%=      5-min Rain = 0
KAM1 141349Z 18012G17KT M06/M09 A3027 RMK A01 T10591086  RH  081%=      5-min Rain = 0
KAM1 141350Z 18012KT M06/M09 A3027 RMK A01 T10591086  RH  081%=      5-min Rain = 0
KAM1 141351Z 18013KT M06/M09 A3027 RMK A01 T10591086  RH  081%=      5-min Rain = 0
KAM1 141352Z 18014KT M06/M09 A3027 RMK A01 T10591086  RH  081%=      5-min Rain = 0
KAM1 141353Z 18012KT M06/M09 A3027 RMK A01 T10591086  RH  081%=      5-min Rain = 0
KAM1 141354Z 18014KT M06/M09 A3027 RMK A01 T10591086  RH  082%=      5-min Rain = 0
KAM1 141355Z 18013KT M06/M09 A3027 RMK A01 T10591085  RH  082%=      5-min Rain = 0
KAM1 141356Z 18012G17KT M06/M09 A3027 RMK A01 T10591085  RH  082%=      5-min Rain = 0
KAM1 141357Z 19013KT M06/M09 A3027 RMK A01 T10581085  RH  082%=      5-min Rain = 0
KAM1 141358Z 19013KT M06/M09 A3027 RMK A01 T10581085  RH  082%=      5-min Rain = 0
KAM1 141359Z 19014KT M06/M09 A3027 RMK A01 T10591085  RH  082%=      5-min Rain = 0
KAM1 141400Z 18012KT M06/M08 A3027 RMK A01 T10581084  RH  082%=      5-min Rain = 0
KAM1 141401Z 18012KT M06/M08 A3027 RMK A01 T10591084  RH  082%=      5-min Rain = 0
KAM1 141402Z 18014KT M06/M08 A3027 RMK A01 T10581084  RH  082%=      5-min Rain = 0
KAM1 141403Z 17012KT M06/M08 A3027 RMK A01 T10581083  RH  082%=      5-min Rain = 0
KAM1 141404Z 18014KT M06/M08 A3027 RMK A01 T10581083  RH  082%=      5-min Rain = 0
KAM1 141405Z 18011KT M06/M08 A3027 RMK A01 T10581083  RH  083%=      5-min Rain = 0
KAM1 141406Z 18013KT M06/M08 A3027 RMK A01 T10581083  RH  083%=      5-min Rain = 0
KAM1 141407Z 18013KT M06/M08 A3027 RMK A01 T10571082  RH  083%=      5-min Rain = 0
KAM1 141408Z 18011KT M06/M08 A3027 RMK A01 T10571082  RH  083%=      5-min Rain = 0
KAM1 141409Z 18012KT M06/M08 A3028 RMK A01 T10571081  RH  083%=      5-min Rain = 0
KAM1 141410Z 19010KT M06/M08 A3028 RMK A01 T10571081  RH  083%=      5-min Rain = 0
KAM1 141411Z 18011KT M06/M08 A3027 RMK A01 T10561080  RH  083%=      5-min Rain = 0
KAM1 141412Z 18011KT M06/M08 A3028 RMK A01 T10561080  RH  083%=      5-min Rain = 0
KAM1 141413Z 18014KT M06/M08 A3028 RMK A01 T10561080  RH  083%=      5-min Rain = 0
KAM1 141414Z 18013KT M06/M08 A3028 RMK A01 T10561080  RH  083%=      5-min Rain = 0
KAM1 141415Z 19011KT M06/M08 A3028 RMK A01 T10561080  RH  083%=      5-min Rain = 0
KAM1 141416Z 18010KT M06/M08 A3028 RMK A01 T10551079  RH  083%=      5-min Rain = 0
KAM1 141417Z 17013KT M06/M08 A3028 RMK A01 T10551079  RH  083%=      5-min Rain = 0
KAM1 141418Z 17012KT M06/M08 A3028 RMK A01 T10551080  RH  083%=      5-min Rain = 0
KAM1 141419Z 18012KT M06/M08 A3028 RMK A01 T10551080  RH  082%=      5-min Rain = 0
KAM1 141420Z 18011KT M06/M08 A3028 RMK A01 T10551080  RH  083%=      5-min Rain = 0
KAM1 141421Z 17013KT M06/M08 A3028 RMK A01 T10551080  RH  083%=      5-min Rain = 0
KAM1 141422Z 18015KT M06/M08 A3028 RMK A01 T10551079  RH  083%=      5-min Rain = 0
KAM1 141423Z 18014KT M05/M08 A3028 RMK A01 T10541079  RH  083%=      5-min Rain = 0
KAM1 141424Z 18013KT M06/M08 A3028 RMK A01 T10551078  RH  084%=      5-min Rain = 0
KAM1 141425Z 18013KT M05/M08 A3028 RMK A01 T10541077  RH  084%=      5-min Rain = 0
KAM1 141426Z 18012KT M05/M08 A3028 RMK A01 T10541076  RH  085%=      5-min Rain = 0
KAM1 141427Z 19014KT M05/M08 A3028 RMK A01 T10541075  RH  085%=      5-min Rain = 0
KAM1 141428Z 18014KT M05/M08 A3028 RMK A01 T10541075  RH  085%=      5-min Rain = 0
KAM1 141429Z 18012KT M05/M08 A3028 RMK A01 T10541075  RH  085%=      5-min Rain = 0
KAM1 141430Z 19012KT M05/M08 A3028 RMK A01 T10541075  RH  085%=      5-min Rain = 0
KAM1 141431Z 18011KT M05/M07 A3028 RMK A01 T10531074  RH  085%=      5-min Rain = 0
KAM1 141432Z 18012KT M05/M07 A3028 RMK A01 T10521073  RH  085%=      5-min Rain = 0
KAM1 141433Z 18012KT M05/M07 A3028 RMK A01 T10521074  RH  085%=      5-min Rain = 0
KAM1 141434Z 18013KT M05/M08 A3028 RMK A01 T10521075  RH  084%=      5-min Rain = 0
KAM1 141435Z 18012KT M05/M08 A3028 RMK A01 T10521076  RH  084%=      5-min Rain = 0
KAM1 141436Z 18015KT M05/M08 A3028 RMK A01 T10521076  RH  083%=      5-min Rain = 0
KAM1 141437Z 17013KT M05/M08 A3028 RMK A01 T10521076  RH  083%=      5-min Rain = 0
KAM1 141438Z 17012KT M05/M08 A3028 RMK A01 T10521076  RH  083%=      5-min Rain = 0
KAM1 141439Z 18014KT M05/M08 A3028 RMK A01 T10521076  RH  083%=      5-min Rain = 0
KAM1 141440Z 18010KT M05/M08 A3028 RMK A01 T10521076  RH  083%=      5-min Rain = 0
KAM1 141441Z 18014KT M05/M07 A3028 RMK A01 T10511074  RH  084%=      5-min Rain = 0
KAM1 141442Z 18012KT M05/M07 A3028 RMK A01 T10511074  RH  084%=      5-min Rain = 0
KAM1 141443Z 18013KT M05/M08 A3028 RMK A01 T10511075  RH  084%=      5-min Rain = 0
KAM1 141444Z 18010KT M05/M08 A3028 RMK A01 T10511075  RH  084%=      5-min Rain = 0
KAM1 141445Z 17011KT M05/M07 A3028 RMK A01 T10511074  RH  084%=      5-min Rain = 0
KAM1 141446Z 18011KT M05/M07 A3028 RMK A01 T10501073  RH  084%=      5-min Rain = 0
KAM1 141447Z 18012KT M05/M07 A3028 RMK A01 T10501073  RH  084%=      5-min Rain = 0
KAM1 141448Z 18013KT M05/M07 A3028 RMK A01 T10501073  RH  084%=      5-min Rain = 0
KAM1 141449Z 18012KT M05/M07 A3028 RMK A01 T10501073  RH  084%=      5-min Rain = 0
KAM1 141450Z 19012KT M05/M07 A3028 RMK A01 T10501072  RH  084%=      5-min Rain = 0
KAM1 141451Z 18012KT M05/M07 A3028 RMK A01 T10501072  RH  084%=      5-min Rain = 0
KAM1 141452Z 18016KT M05/M07 A3027 RMK A01 T10501072  RH  085%=      5-min Rain = 0
KAM1 141453Z 18016KT M05/M07 A3027 RMK A01 T10501071  RH  085%=      5-min Rain = 0
KAM1 141454Z 18016KT M05/M07 A3027 RMK A01 T10501071  RH  085%=      5-min Rain = 0
KAM1 141455Z 18012KT M05/M07 A3027 RMK A01 T10501070  RH  086%=      5-min Rain = 0
KAM1 141456Z 18014KT M05/M07 A3027 RMK A01 T10491069  RH  086%=      5-min Rain = 0
KAM1 141457Z 18015KT M05/M07 A3027 RMK A01 T10491069  RH  086%=      5-min Rain = 0
KAM1 141458Z 18014KT M05/M07 A3027 RMK A01 T10491069  RH  086%=      5-min Rain = 0
KAM1 141459Z 19013KT M05/M07 A3027 RMK A01 T10491069  RH  086%=      5-min Rain = 0
KAM1 141500Z 18015KT M05/M07 A3027 RMK A01 T10491068  RH  086%=      5-min Rain = 0
KAM1 141501Z 18015KT M05/M07 A3027 RMK A01 T10491068  RH  087%=      5-min Rain = 0
KAM1 141502Z 18014KT M05/M07 A3027 RMK A01 T10491068  RH  087%=      5-min Rain = 0
KAM1 141503Z 19014KT M05/M07 A3027 RMK A01 T10491067  RH  087%=      5-min Rain = 0
KAM1 141504Z 18014KT M05/M07 A3027 RMK A01 T10491067  RH  088%=      5-min Rain = 0
KAM1 141505Z 18012KT M05/M07 A3027 RMK A01 T10491066  RH  088%=      5-min Rain = 0
KAM1 141506Z 18011KT M05/M07 A3027 RMK A01 T10481065  RH  088%=      5-min Rain = 0
KAM1 141507Z 19011KT M05/M06 A3027 RMK A01 T10481064  RH  088%=      5-min Rain = 0
KAM1 141508Z 19012KT M05/M06 A3027 RMK A01 T10471064  RH  088%=      5-min Rain = 0
KAM1 141509Z 18012KT M05/M06 A3027 RMK A01 T10471063  RH  088%=      5-min Rain = 0
KAM1 141510Z 19014KT M05/M06 A3027 RMK A01 T10471064  RH  088%=      5-min Rain = 0
KAM1 141511Z 18013KT M05/M06 A3027 RMK A01 T10471064  RH  088%=      5-min Rain = 0
KAM1 141512Z 19013KT M05/M06 A3027 RMK A01 T10461063  RH  088%=      5-min Rain = 0
KAM1 141513Z 18012KT M05/M06 A3027 RMK A01 T10471063  RH  088%=      5-min Rain = 0
KAM1 141514Z 19014KT M05/M06 A3027 RMK A01 T10461063  RH  088%=      5-min Rain = 0
KAM1 141515Z 19015KT M05/M06 A3027 RMK A01 T10461063  RH  088%=      5-min Rain = 0
KAM1 141516Z 18013KT M05/M06 A3027 RMK A01 T10461062  RH  088%=      5-min Rain = 0
KAM1 141517Z 18013KT M05/M06 A3027 RMK A01 T10451061  RH  089%=      5-min Rain = 0
KAM1 141518Z 18015KT M05/M06 A3027 RMK A01 T10451061  RH  089%=      5-min Rain = 0
KAM1 141519Z 18012KT M05/M06 A3027 RMK A01 T10451061  RH  089%=      5-min Rain = 0
KAM1 141520Z 18011KT M05/M06 A3027 RMK A01 T10451059  RH  090%=      5-min Rain = 0
KAM1 141521Z 18011G16KT M04/M06 A3027 RMK A01 T10441058  RH  090%=      5-min Rain = 0
KAM1 141522Z 18015KT M04/M06 A3027 RMK A01 T10431059  RH  089%=      5-min Rain = 0
KAM1 141523Z 18014KT M04/M06 A3027 RMK A01 T10441060  RH  088%=      5-min Rain = 0
KAM1 141524Z 18013KT M05/M06 A3027 RMK A01 T10451061  RH  089%=      5-min Rain = 0
KAM1 141525Z 18012KT M04/M06 A3027 RMK A01 T10441059  RH  089%=      5-min Rain = 0
KAM1 141526Z 18011KT M04/M06 A3027 RMK A01 T10441059  RH  089%=      5-min Rain = 0
KAM1 141527Z 18014KT M04/M06 A3027 RMK A01 T10441059  RH  089%=      5-min Rain = 0
KAM1 141528Z 18015KT M04/M06 A3027 RMK A01 T10441060  RH  089%=      5-min Rain = 0
KAM1 141529Z 18014KT M04/M06 A3027 RMK A01 T10441060  RH  089%=      5-min Rain = 0
KAM1 141530Z 19014KT M04/M06 A3027 RMK A01 T10441059  RH  089%=      5-min Rain = 0
KAM1 141531Z 19014KT M04/M06 A3027 RMK A01 T10441059  RH  089%=      5-min Rain = 0
KAM1 141532Z 19013KT M04/M06 A3027 RMK A01 T10441058  RH  090%=      5-min Rain = 0
KAM1 141533Z 18013KT M04/M06 A3027 RMK A01 T10441058  RH  090%=      5-min Rain = 0
KAM1 141534Z 18016KT M04/M06 A3027 RMK A01 T10431057  RH  090%=      5-min Rain = 0
KAM1 141535Z 19014KT M04/M06 A3027 RMK A01 T10431058  RH  090%=      5-min Rain = 0
KAM1 141536Z 18012KT M04/M06 A3027 RMK A01 T10431057  RH  090%=      5-min Rain = 0
KAM1 141537Z 19012KT M04/M06 A3027 RMK A01 T10421056  RH  090%=      5-min Rain = 0
KAM1 141538Z 18012KT M04/M06 A3027 RMK A01 T10421056  RH  090%=      5-min Rain = 0
KAM1 141539Z 19014KT M04/M06 A3027 RMK A01 T10421056  RH  090%=      5-min Rain = 0
KAM1 141540Z 19013KT M04/M06 A3027 RMK A01 T10421055  RH  090%=      5-min Rain = 0
KAM1 141541Z 19012KT M04/M06 A3027 RMK A01 T10411055  RH  090%=      5-min Rain = 0
KAM1 141542Z 19011KT M04/M05 A3027 RMK A01 T10401054  RH  090%=      5-min Rain = 0
KAM1 141543Z 19014KT M04/M05 A3027 RMK A01 T10401053  RH  091%=      5-min Rain = 0
KAM1 141544Z 19014KT M04/M05 A3027 RMK A01 T10401053  RH  090%=      5-min Rain = 0
KAM1 141545Z 19011G16KT M04/M05 A3027 RMK A01 T10391052  RH  091%=      5-min Rain = 0
KAM1 141546Z 18014KT M04/M05 A3027 RMK A01 T10391051  RH  091%=      5-min Rain = 0
KAM1 141547Z 18015KT M04/M05 A3027 RMK A01 T10391051  RH  091%=      5-min Rain = 0
KAM1 141548Z 18014KT M04/M05 A3027 RMK A01 T10391051  RH  092%=      5-min Rain = 0
KAM1 141549Z 19013KT M04/M05 A3027 RMK A01 T10391050  RH  092%=      5-min Rain = 0
KAM1 141550Z 18013KT M04/M05 A3027 RMK A01 T10381049  RH  092%=      5-min Rain = 0
KAM1 141551Z 19012KT M04/M05 A3027 RMK A01 T10381048  RH  092%=      5-min Rain = 0
KAM1 141552Z 19015KT M04/M05 A3027 RMK A01 T10371048  RH  092%=      5-min Rain = 0
KAM1 141553Z 19014KT M04/M05 A3027 RMK A01 T10371049  RH  092%=      5-min Rain = 0
KAM1 141554Z 18014KT M04/M05 A3027 RMK A01 T10371049  RH  092%=      5-min Rain = 0
KAM1 141555Z 18014KT M04/M05 A3027 RMK A01 T10381048  RH  092%=      5-min Rain = 0
KAM1 141556Z 18017KT M04/M05 A3027 RMK A01 T10371047  RH  093%=      5-min Rain = 0
KAM1 141557Z 18014KT M04/M05 A3027 RMK A01 T10381047  RH  093%=      5-min Rain = 0
KAM1 141558Z 18014KT M04/M05 A3027 RMK A01 T10371046  RH  094%=      5-min Rain = 0
KAM1 141559Z 18012KT M04/M05 A3027 RMK A01 T10371045  RH  094%=      5-min Rain = 0
KAM1 141600Z 18013KT M04/M04 A3027 RMK A01 T10361043  RH  095%=      5-min Rain = 0
KAM1 141601Z 19012KT M04/M04 A3027 RMK A01 T10351043  RH  095%=      5-min Rain = 0
KAM1 141602Z 19014KT M04/M04 A3027 RMK A01 T10351042  RH  095%=      5-min Rain = 0
KAM1 141603Z 18013KT M04/M04 A3027 RMK A01 T10351042  RH  095%=      5-min Rain = 0
KAM1 141604Z 19013KT M04/M04 A3027 RMK A01 T10351042  RH  095%=      5-min Rain = 0
KAM1 141605Z 19013KT M03/M04 A3027 RMK A01 T10341041  RH  095%=      5-min Rain = 0
KAM1 141606Z 19010G16KT M03/M04 A3027 RMK A01 T10341041  RH  095%=      5-min Rain = 0
KAM1 141607Z 19015KT M03/M04 A3027 RMK A01 T10331039  RH  095%=      5-min Rain = 0
KAM1 141608Z 18016KT M03/M04 A3027 RMK A01 T10321039  RH  095%=      5-min Rain = 0
KAM1 141609Z 19017KT M03/M04 A3027 RMK A01 T10331039  RH  095%=      5-min Rain = 0
KAM1 141610Z 19014KT M03/M04 A3027 RMK A01 T10331039  RH  096%=      5-min Rain = 0
KAM1 141611Z 19012KT M03/M04 A3027 RMK A01 T10331038  RH  096%=      5-min Rain = 0
KAM1 141612Z 19014KT M03/M04 A3027 RMK A01 T10321037  RH  096%=      5-min Rain = 0
KAM1 141613Z 18015KT M03/M04 A3027 RMK A01 T10311036  RH  096%=      5-min Rain = 0
KAM1 141614Z 19011KT M03/M04 A3027 RMK A01 T10301036  RH  096%=      5-min Rain = 0
KAM1 141615Z 19010KT M03/M04 A3027 RMK A01 T10301035  RH  096%=      5-min Rain = 0
KAM1 141616Z 18012KT M03/M03 A3027 RMK A01 T10291034  RH  096%=      5-min Rain = 0
KAM1 141617Z 19012KT M03/M04 A3026 RMK A01 T10281035  RH  095%=      5-min Rain = 0
KAM1 141618Z 19011G16KT M03/M04 A3026 RMK A01 T10281035  RH  095%=      5-min Rain = 0
KAM1 141619Z 19012KT M03/M03 A3026 RMK A01 T10271034  RH  095%=      5-min Rain = 0
KAM1 141620Z 18011G17KT M03/M03 A3026 RMK A01 T10271034  RH  095%=      5-min Rain = 0
KAM1 141621Z 19013KT M03/M03 A3026 RMK A01 T10271033  RH  095%=      5-min Rain = 0
KAM1 141622Z 19016KT M03/M03 A3026 RMK A01 T10271033  RH  095%=      5-min Rain = 0
KAM1 141623Z 19013KT M03/M04 A3026 RMK A01 T10281035  RH  095%=      5-min Rain = 0
KAM1 141624Z 19015KT M03/M03 A3026 RMK A01 T10281034  RH  095%=      5-min Rain = 0
KAM1 141625Z 20015KT M03/M03 A3026 RMK A01 T10281034  RH  096%=      5-min Rain = 0
KAM1 141626Z 19017KT M03/M03 A3026 RMK A01 T10281032  RH  096%=      5-min Rain = 0
KAM1 141627Z 20016KT M03/M03 A3026 RMK A01 T10281032  RH  097%=      5-min Rain = 0
KAM1 141628Z 20014KT M03/M03 A3026 RMK A01 T10281031  RH  097%=      5-min Rain = 0
KAM1 141629Z 20014KT M03/M03 A3026 RMK A01 T10271030  RH  098%=      5-min Rain = 0
KAM1 141630Z 20014KT M03/M03 A3026 RMK A01 T10261029  RH  098%=      5-min Rain = 0
KAM1 141631Z 19014KT M03/M03 A3026 RMK A01 T10261029  RH  098%=      5-min Rain = 0
KAM1 141632Z 19015KT M03/M03 A3026 RMK A01 T10261029  RH  097%=      5-min Rain = 0
KAM1 141633Z 19013KT M03/M03 A3026 RMK A01 T10251029  RH  097%=      5-min Rain = 0
KAM1 141634Z 19014KT M03/M03 A3026 RMK A01 T10251029  RH  097%=      5-min Rain = 0
KAM1 141635Z 19014KT M03/M03 A3026 RMK A01 T10251028  RH  097%=      5-min Rain = 0
KAM1 141636Z 19014KT M02/M03 A3026 RMK A01 T10241028  RH  097%=      5-min Rain = 0
KAM1 141637Z 19014KT M02/M03 A3026 RMK A01 T10241028  RH  097%=      5-min Rain = 0
KAM1 141638Z 20016KT M02/M03 A3026 RMK A01 T10241028  RH  097%=      5-min Rain = 0
KAM1 141639Z 20015KT M02/M03 A3026 RMK A01 T10241029  RH  097%=      5-min Rain = 0
KAM1 141640Z 19013KT M03/M03 A3026 RMK A01 T10251029  RH  097%=      5-min Rain = 0
KAM1 141641Z 19014KT M02/M03 A3026 RMK A01 T10241028  RH  097%=      5-min Rain = 0
KAM1 141642Z 19013KT M02/M03 A3026 RMK A01 T10241028  RH  097%=      5-min Rain = 0
KAM1 141643Z 19014KT M02/M03 A3026 RMK A01 T10241028  RH  097%=      5-min Rain = 0
KAM1 141644Z 19012KT M02/M03 A3026 RMK A01 T10241027  RH  097%=      5-min Rain = 0
KAM1 141645Z 19012KT M02/M03 A3026 RMK A01 T10231027  RH  097%=      5-min Rain = 0
KAM1 141646Z 19011KT M02/M03 A3026 RMK A01 T10231027  RH  097%=      5-min Rain = 0
KAM1 141647Z 18011KT M02/M03 A3026 RMK A01 T10231028  RH  096%=      5-min Rain = 0
KAM1 141648Z 19011G17KT M02/M03 A3026 RMK A01 T10231028  RH  096%=      5-min Rain = 0
KAM1 141649Z 19014KT M02/M03 A3026 RMK A01 T10221027  RH  096%=      5-min Rain = 0
KAM1 141650Z 19013KT M02/M03 A3026 RMK A01 T10221028  RH  096%=      5-min Rain = 0
KAM1 141651Z 19014KT M02/M03 A3026 RMK A01 T10221028  RH  096%=      5-min Rain = 0
KAM1 141652Z 19013KT M02/M03 A3026 RMK A01 T10231028  RH  096%=      5-min Rain = 0
KAM1 141653Z 19013KT M02/M03 A3026 RMK A01 T10231027  RH  096%=      5-min Rain = 0
KAM1 141654Z 19015KT M02/M03 A3026 RMK A01 T10221027  RH  097%=      5-min Rain = 0
KAM1 141655Z 20015KT M02/M03 A3026 RMK A01 T10221027  RH  096%=      5-min Rain = 0
KAM1 141656Z 20016KT M02/M03 A3025 RMK A01 T10231028  RH  096%=      5-min Rain = 0
KAM1 141657Z 19011KT M02/M03 A3026 RMK A01 T10241028  RH  097%=      5-min Rain = 0
KAM1 141658Z 20013G18KT M02/M03 A3026 RMK A01 T10231026  RH  098%=      5-min Rain = 0
KAM1 141659Z 20015KT M02/M03 A3026 RMK A01 T10221026  RH  098%=      5-min Rain = 0
KAM1 141700Z 20016KT M02/M03 A3026 RMK A01 T10221026  RH  097%=      5-min Rain = 0
KAM1 141701Z 20014KT M02/M03 A3026 RMK A01 T10231026  RH  098%=      5-min Rain = 0
KAM1 141702Z 20014KT M02/M03 A3026 RMK A01 T10231026  RH  098%=      5-min Rain = 0
KAM1 141703Z 20014KT M02/M03 A3026 RMK A01 T10231025  RH  098%=      5-min Rain = 0
KAM1 141704Z 19013KT M02/M03 A3026 RMK A01 T10231025  RH  098%=      5-min Rain = 0
KAM1 141705Z 19013KT M02/M03 A3026 RMK A01 T10231025  RH  098%=      5-min Rain = 0
KAM1 141706Z 19014KT M02/M03 A3026 RMK A01 T10231025  RH  098%=      5-min Rain = 0
KAM1 141707Z 19012KT M02/M03 A3026 RMK A01 T10221025  RH  099%=      5-min Rain = 0
KAM1 141708Z 19011KT M02/M02 A3026 RMK A01 T10221024  RH  099%=      5-min Rain = 0
KAM1 141709Z 19012KT M02/M02 A3026 RMK A01 T10221023  RH  099%=      5-min Rain = 0
KAM1 141710Z 19009KT M02/M02 A3026 RMK A01 T10221023  RH  099%=      5-min Rain = 0
KAM1 141711Z 20013KT M02/M02 A3026 RMK A01 T10211023  RH  099%=      5-min Rain = 0
KAM1 141712Z 19013KT M02/M02 A3025 RMK A01 T10211023  RH  098%=      5-min Rain = 0
KAM1 141713Z 19013KT M02/M02 A3025 RMK A01 T10211023  RH  098%=      5-min Rain = 0
KAM1 141714Z 19014KT M02/M02 A3025 RMK A01 T10211023  RH  098%=      5-min Rain = 0
KAM1 141715Z 19014KT M02/M02 A3025 RMK A01 T10211024  RH  098%=      5-min Rain = 0
KAM1 141716Z 20012KT M02/M02 A3025 RMK A01 T10211024  RH  098%=      5-min Rain = 0
KAM1 141717Z 19012KT M02/M02 A3025 RMK A01 T10211023  RH  099%=      5-min Rain = 0
KAM1 141718Z 19014KT M02/M02 A3025 RMK A01 T10201021  RH  099%=      5-min Rain = 0
KAM1 141719Z 19011KT M02/M02 A3025 RMK A01 T10201022  RH  099%=      5-min Rain = 0
KAM1 141720Z 19013KT M02/M02 A3025 RMK A01 T10191021  RH  099%=      5-min Rain = 0
KAM1 141721Z 20014KT M02/M02 A3025 RMK A01 T10181021  RH  098%=      5-min Rain = 0
KAM1 141722Z 19015KT M02/M02 A3025 RMK A01 T10191022  RH  097%=      5-min Rain = 0
KAM1 141723Z 20012KT M02/M02 A3025 RMK A01 T10191023  RH  097%=      5-min Rain = 0
KAM1 141724Z 20012KT M02/M02 A3025 RMK A01 T10191022  RH  098%=      5-min Rain = 0
KAM1 141725Z 20013KT M02/M02 A3024 RMK A01 T10191022  RH  098%=      5-min Rain = 0
KAM1 141726Z 19011KT M02/M02 A3024 RMK A01 T10191022  RH  098%=      5-min Rain = 0
KAM1 141727Z 20010KT M02/M02 A3024 RMK A01 T10191022  RH  098%=      5-min Rain = 0
KAM1 141728Z 19010KT M02/M02 A3024 RMK A01 T10181020  RH  098%=      5-min Rain = 0
KAM1 141729Z 19015KT M02/M02 A3024 RMK A01 T10171020  RH  098%=      5-min Rain = 0
KAM1 141730Z 19012KT M02/M02 A3024 RMK A01 T10171022  RH  097%=      5-min Rain = 0
KAM1 141731Z 18013KT M02/M02 A3024 RMK A01 T10181022  RH  097%=      5-min Rain = 0
KAM1 141732Z 19012KT M02/M02 A3024 RMK A01 T10181022  RH  097%=      5-min Rain = 0
KAM1 141733Z 19011KT M02/M02 A3024 RMK A01 T10171022  RH  097%=      5-min Rain = 0
KAM1 141734Z 18012KT M02/M02 A3024 RMK A01 T10171021  RH  097%=      5-min Rain = 0
KAM1 141735Z 20014KT M02/M02 A3024 RMK A01 T10171021  RH  097%=      5-min Rain = 0
KAM1 141736Z 20013KT M02/M02 A3024 RMK A01 T10171022  RH  097%=      5-min Rain = 0
KAM1 141737Z 18013KT M02/M02 A3024 RMK A01 T10171022  RH  097%=      5-min Rain = 0
KAM1 141738Z 18014KT M02/M02 A3024 RMK A01 T10171022  RH  096%=      5-min Rain = 0
KAM1 141739Z 18015KT M02/M02 A3024 RMK A01 T10171023  RH  096%=      5-min Rain = 0
KAM1 141740Z 18015KT M02/M02 A3024 RMK A01 T10181024  RH  096%=      5-min Rain = 0
KAM1 141741Z 18013KT M02/M03 A3024 RMK A01 T10191025  RH  096%=      5-min Rain = 0
KAM1 141742Z 18016KT M02/M02 A3024 RMK A01 T10201024  RH  097%=      5-min Rain = 0
KAM1 141743Z 18014KT M02/M02 A3024 RMK A01 T10201024  RH  097%=      5-min Rain = 0
KAM1 141744Z 19013KT M02/M02 A3024 RMK A01 T10201023  RH  097%=      5-min Rain = 0
KAM1 141745Z 18013KT M02/M02 A3024 RMK A01 T10191023  RH  098%=      5-min Rain = 0
KAM1 141746Z 19016KT M02/M02 A3024 RMK A01 T10191023  RH  097%=      5-min Rain = 0
KAM1 141747Z 19015KT M02/M02 A3024 RMK A01 T10191023  RH  097%=      5-min Rain = 0
KAM1 141748Z 19012KT M02/M02 A3024 RMK A01 T10191023  RH  097%=      5-min Rain = 0
KAM1 141749Z 18013KT M02/M02 A3024 RMK A01 T10191023  RH  097%=      5-min Rain = 0
KAM1 141750Z 18012G17KT M02/M02 A3024 RMK A01 T10181022  RH  097%=      5-min Rain = 0
KAM1 141751Z 18013KT M02/M02 A3024 RMK A01 T10181022  RH  097%=      5-min Rain = 0
KAM1 141752Z 19014KT M02/M02 A3024 RMK A01 T10171022  RH  097%=      5-min Rain = 0
KAM1 141753Z 19013KT M02/M02 A3024 RMK A01 T10181023  RH  097%=      5-min Rain = 0
KAM1 141754Z 19012KT M02/M02 A3024 RMK A01 T10181022  RH  097%=      5-min Rain = 0
KAM1 141755Z 18016KT M02/M02 A3024 RMK A01 T10171022  RH  097%=      5-min Rain = 0
KAM1 141756Z 18017KT M02/M02 A3023 RMK A01 T10181023  RH  096%=      5-min Rain = 0
KAM1 141757Z 18016KT M02/M02 A3023 RMK A01 T10181023  RH  096%=      5-min Rain = 0
KAM1 141758Z 19013KT M02/M02 A3023 RMK A01 T10181023  RH  097%=      5-min Rain = 0
KAM1 141759Z 19012KT M02/M02 A3023 RMK A01 T10181022  RH  097%=      5-min Rain = 0
KAM1 141800Z 18013KT M02/M02 A3023 RMK A01 T10171021  RH  097%=      5-min Rain = 0
KAM1 141801Z 19012KT M02/M02 A3023 RMK A01 T10171021  RH  097%=      5-min Rain = 0
KAM1 141802Z 19015KT M02/M02 A3023 RMK A01 T10161020  RH  097%=      5-min Rain = 0
KAM1 141803Z 18014KT M02/M02 A3023 RMK A01 T10161020  RH  097%=      5-min Rain = 0
KAM1 141804Z 19013KT M02/M02 A3023 RMK A01 T10161021  RH  096%=      5-min Rain = 0
KAM1 141805Z 19013KT M02/M02 A3023 RMK A01 T10161021  RH  096%=      5-min Rain = 0
KAM1 141806Z 20015KT M02/M02 A3023 RMK A01 T10151020  RH  096%=      5-min Rain = 0
KAM1 141807Z 19011KT M02/M02 A3023 RMK A01 T10151021  RH  096%=      5-min Rain = 0
KAM1 141808Z 20011KT M01/M02 A3023 RMK A01 T10141019  RH  096%=      5-min Rain = 0
KAM1 141809Z 20014KT M01/M02 A3023 RMK A01 T10131018  RH  096%=      5-min Rain = 0
KAM1 141810Z 19013KT M01/M02 A3023 RMK A01 T10131020  RH  095%=      5-min Rain = 0
KAM1 141811Z 18015KT M01/M02 A3023 RMK A01 T10131020  RH  096%=      5-min Rain = 0
KAM1 141812Z 19014KT M01/M02 A3022 RMK A01 T10141020  RH  095%=      5-min Rain = 0
KAM1 141813Z 19015KT M01/M02 A3022 RMK A01 T10141020  RH  095%=      5-min Rain = 0
KAM1 141814Z 19017KT M01/M02 A3022 RMK A01 T10131019  RH  096%=      5-min Rain = 0
KAM1 141815Z 20015KT M01/M02 A3022 RMK A01 T10131019  RH  096%=      5-min Rain = 0
KAM1 141816Z 19014KT M01/M02 A3022 RMK A01 T10131019  RH  096%=      5-min Rain = 0
KAM1 141817Z 19016KT M01/M02 A3022 RMK A01 T10121018  RH  096%=      5-min Rain = 0
KAM1 141818Z 19017KT M01/M02 A3022 RMK A01 T10111018  RH  095%=      5-min Rain = 0
KAM1 141819Z 19016KT M01/M02 A3022 RMK A01 T10111018  RH  095%=      5-min Rain = 0
KAM1 141820Z 20015KT M01/M02 A3022 RMK A01 T10111018  RH  095%=      5-min Rain = 0
KAM1 141821Z 19013KT M01/M02 A3022 RMK A01 T10111018  RH  095%=      5-min Rain = 0
KAM1 141822Z 19014KT M01/M02 A3022 RMK A01 T10101017  RH  095%=      5-min Rain = 0
KAM1 141823Z 19013KT M01/M02 A3022 RMK A01 T10101017  RH  095%=      5-min Rain = 0
KAM1 141824Z 19016KT M01/M02 A3021 RMK A01 T10091017  RH  095%=      5-min Rain = 0
KAM1 141825Z 20013KT M01/M02 A3021 RMK A01 T10091017  RH  094%=      5-min Rain = 0
KAM1 141826Z 20015KT M01/M02 A3021 RMK A01 T10091017  RH  094%=      5-min Rain = 0
KAM1 141827Z 20013KT M01/M02 A3021 RMK A01 T10081016  RH  094%=      5-min Rain = 0
KAM1 141828Z 19012G17KT M01/M02 A3021 RMK A01 T10071016  RH  094%=      5-min Rain = 0
KAM1 141829Z 19015KT M01/M02 A3021 RMK A01 T10071015  RH  094%=      5-min Rain = 0
KAM1 141830Z 19012KT M01/M02 A3021 RMK A01 T10061015  RH  094%=      5-min Rain = 0
KAM1 141831Z 20011KT M01/M01 A3021 RMK A01 T10051014  RH  094%=      5-min Rain = 0
KAM1 141832Z 20014G20KT M00/M01 A3021 RMK A01 T10041014  RH  093%=      5-min Rain = 0
KAM1 141833Z 20017KT M00/M02 A3021 RMK A01 T10041015  RH  092%=      5-min Rain = 0
KAM1 141834Z 19015KT M00/M02 A3021 RMK A01 T10041015  RH  092%=      5-min Rain = 0
KAM1 141835Z 19015KT M00/M02 A3021 RMK A01 T10041015  RH  092%=      5-min Rain = 0
KAM1 141836Z 20014G19KT M00/M01 A3021 RMK A01 T10031014  RH  093%=      5-min Rain = 0
KAM1 141837Z 20017KT M00/M02 A3021 RMK A01 T10041015  RH  092%=      5-min Rain = 0
KAM1 141838Z 20015KT M00/M02 A3021 RMK A01 T10031015  RH  092%=      5-min Rain = 0
KAM1 141839Z 19015KT M00/M01 A302 RMK A01 T10031014  RH  092%=      5-min Rain = 0
KAM1 141840Z 19014G19KT M00/M01 A302 RMK A01 T10031014  RH  092%=      5-min Rain = 0
KAM1 141841Z 19014KT M00/M01 A302 RMK A01 T10021013  RH  092%=      5-min Rain = 0
KAM1 141842Z 20014G19KT M00/M01 A302 RMK A01 T10011013  RH  092%=      5-min Rain = 0
KAM1 141843Z 20011KT 00/01 A302 RMK A01 T00-00-13  RH  091%=      5-min Rain = 0
KAM1 141844Z 19015KT 00/M01 A302 RMK A01 T00011011  RH  091%=      5-min Rain = 0
KAM1 141845Z 20016G21KT 00/M01 A302 RMK A01 T00021012  RH  090%=      5-min Rain = 0
KAM1 141846Z 20017KT 00/M01 A302 RMK A01 T00011014  RH  090%=      5-min Rain = 0
KAM1 141847Z 20016KT 00/01 A302 RMK A01 T00000-14  RH  090%=      5-min Rain = 0
KAM1 141848Z 19017KT 00/01 A302 RMK A01 T00000-13  RH  091%=      5-min Rain = 0
KAM1 141849Z 20018KT 00/M01 A302 RMK A01 T00011013  RH  090%=      5-min Rain = 0
KAM1 141850Z 20015KT 00/M01 A3019 RMK A01 T00011013  RH  090%=      5-min Rain = 0
KAM1 141851Z 21015KT 00/M01 A3019 RMK A01 T00011012  RH  090%=      5-min Rain = 0
KAM1 141852Z 20016KT 00/M01 A3019 RMK A01 T00021012  RH  090%=      5-min Rain = 0
KAM1 141853Z 20015KT 00/M01 A3019 RMK A01 T00021012  RH  090%=      5-min Rain = 0
KAM1 141854Z 21013KT 00/M01 A3019 RMK A01 T00031011  RH  090%=      5-min Rain = 0
KAM1 141855Z 21015G20KT 00/M01 A3019 RMK A01 T00041011  RH  090%=      5-min Rain = 0
KAM1 141856Z 21015KT 01/M01 A3019 RMK A01 T00051011  RH  089%=      5-min Rain = 0
KAM1 141857Z 21015KT 00/M01 A3019 RMK A01 T00041013  RH  089%=      5-min Rain = 0
KAM1 141858Z 21014KT 00/M01 A3019 RMK A01 T00031013  RH  089%=      5-min Rain = 0
KAM1 141859Z 21013KT 00/M01 A3019 RMK A01 T00041012  RH  089%=      5-min Rain = 0
KAM1 141900Z 20015KT 00/M01 A3019 RMK A01 T00041012  RH  089%=      5-min Rain = 0
KAM1 141901Z 21013KT 00/M01 A3019 RMK A01 T00041012  RH  089%=      5-min Rain = 0
KAM1 141902Z 21012KT 00/M01 A3019 RMK A01 T00041011  RH  089%=      5-min Rain = 0
KAM1 141903Z 20015KT 01/M01 A3019 RMK A01 T00061010  RH  089%=      5-min Rain = 0
KAM1 141904Z 21016KT 01/M01 A3019 RMK A01 T00061011  RH  088%=      5-min Rain = 0
KAM1 141905Z 20016KT 01/M01 A3019 RMK A01 T00061011  RH  088%=      5-min Rain = 0
KAM1 141906Z 20011KT 01/M01 A3019 RMK A01 T00061010  RH  089%=      5-min Rain = 0
KAM1 141907Z 19013KT 01/M01 A3019 RMK A01 T00081008  RH  089%=      5-min Rain = 0
KAM1 141908Z 19016KT 01/M01 A3019 RMK A01 T00091009  RH  088%=      5-min Rain = 0
KAM1 141909Z 20016KT 01/M01 A3019 RMK A01 T00091010  RH  087%=      5-min Rain = 0
KAM1 141910Z 19015G20KT 01/M01 A3019 RMK A01 T00091010  RH  087%=      5-min Rain = 0
KAM1 141911Z 20016KT 01/M01 A3019 RMK A01 T00081010  RH  087%=      5-min Rain = 0
KAM1 141912Z 20015KT 01/M01 A3019 RMK A01 T00071012  RH  087%=      5-min Rain = 0
KAM1 141913Z 20015KT 01/M01 A3019 RMK A01 T00071011  RH  088%=      5-min Rain = 0
KAM1 141914Z 20017KT 01/M01 A3019 RMK A01 T00071011  RH  088%=      5-min Rain = 0
KAM1 141915Z 21014G19KT 01/M01 A3018 RMK A01 T00071011  RH  088%=      5-min Rain = 0
KAM1 141916Z 20014KT 01/M01 A3018 RMK A01 T00081010  RH  088%=      5-min Rain = 0
KAM1 141917Z 20016KT 01/M01 A3018 RMK A01 T00091009  RH  088%=      5-min Rain = 0
KAM1 141918Z 20016KT 01/M01 A3018 RMK A01 T00091009  RH  087%=      5-min Rain = 0
KAM1 141919Z 19013G18KT 01/M01 A3018 RMK A01 T00091010  RH  087%=      5-min Rain = 0
KAM1 141920Z 20016KT 01/M01 A3018 RMK A01 T00091009  RH  088%=      5-min Rain = 0
KAM1 141921Z 20017KT 01/M01 A3018 RMK A01 T00101010  RH  087%=      5-min Rain = 0
KAM1 141922Z 20017KT 01/M01 A3018 RMK A01 T00091010  RH  087%=      5-min Rain = 0
KAM1 141923Z 20017KT 01/M01 A3018 RMK A01 T00091010  RH  087%=      5-min Rain = 0
KAM1 141924Z 20017KT 01/M01 A3018 RMK A01 T00091010  RH  087%=      5-min Rain = 0
KAM1 141925Z 20017KT 01/M01 A3018 RMK A01 T00091010  RH  087%=      5-min Rain = 0
KAM1 141926Z 20016G22KT 01/M01 A3018 RMK A01 T00101010  RH  087%=      5-min Rain = 0
KAM1 141927Z 21015KT 01/M01 A3018 RMK A01 T00101009  RH  087%=      5-min Rain = 0
KAM1 141928Z 21010KT 01/M01 A3018 RMK A01 T00111008  RH  087%=      5-min Rain = 0
KAM1 141929Z 21015G20KT 01/M01 A3018 RMK A01 T00141006  RH  087%=      5-min Rain = 0
KAM1 141930Z 21019KT 01/M01 A3018 RMK A01 T00141008  RH  085%=      5-min Rain = 0
KAM1 141931Z 20017KT 01/M01 A3018 RMK A01 T00121010  RH  085%=      5-min Rain = 0
KAM1 141932Z 21016KT 01/M01 A3018 RMK A01 T00111010  RH  086%=      5-min Rain = 0
KAM1 141933Z 20015KT 01/M01 A3018 RMK A01 T00111009  RH  087%=      5-min Rain = 0
KAM1 141934Z 20015KT 01/M01 A3018 RMK A01 T00121008  RH  086%=      5-min Rain = 0
KAM1 141935Z 20017KT 01/M01 A3018 RMK A01 T00121008  RH  087%=      5-min Rain = 0
KAM1 141936Z 20014KT 01/M01 A3018 RMK A01 T00121009  RH  086%=      5-min Rain = 0
KAM1 141937Z 21012KT 01/M01 A3018 RMK A01 T00121008  RH  087%=      5-min Rain = 0
KAM1 141938Z 21014KT 01/M01 A3017 RMK A01 T00131007  RH  087%=      5-min Rain = 0
KAM1 141939Z 19014KT 01/M01 A3017 RMK A01 T00141007  RH  086%=      5-min Rain = 0
KAM1 141940Z 20014KT 01/M01 A3017 RMK A01 T00141007  RH  086%=      5-min Rain = 0
KAM1 141941Z 20012KT 02/M01 A3017 RMK A01 T00151006  RH  086%=      5-min Rain = 0
KAM1 141942Z 21013KT 02/M00 A3017 RMK A01 T00171004  RH  086%=      5-min Rain = 0
KAM1 141943Z 20015KT 02/M01 A3017 RMK A01 T00181005  RH  085%=      5-min Rain = 0
KAM1 141944Z 19016KT 02/M01 A3017 RMK A01 T00171006  RH  085%=      5-min Rain = 0
KAM1 141945Z 19016KT 02/M01 A3017 RMK A01 T00151008  RH  085%=      5-min Rain = 0
KAM1 141946Z 20015G20KT 02/M01 A3017 RMK A01 T00151007  RH  086%=      5-min Rain = 0
KAM1 141947Z 19016KT 02/M01 A3017 RMK A01 T00151007  RH  086%=      5-min Rain = 0
KAM1 141948Z 19016KT 02/M01 A3017 RMK A01 T00151006  RH  086%=      5-min Rain = 0
KAM1 141949Z 19015KT 02/M01 A3017 RMK A01 T00151005  RH  086%=      5-min Rain = 0
KAM1 141950Z 19015KT 02/M01 A3016 RMK A01 T00161005  RH  086%=      5-min Rain = 0
KAM1 141951Z 19016KT 02/M01 A3016 RMK A01 T00161005  RH  086%=      5-min Rain = 0
KAM1 141952Z 19015KT 02/M01 A3016 RMK A01 T00161006  RH  086%=      5-min Rain = 0
KAM1 141953Z 19016KT 02/M01 A3016 RMK A01 T00161005  RH  086%=      5-min Rain = 0
KAM1 141954Z 19016KT 02/M01 A3016 RMK A01 T00171006  RH  085%=      5-min Rain = 0
KAM1 141955Z 19017KT 02/M01 A3016 RMK A01 T00161007  RH  085%=      5-min Rain = 0
KAM1 141956Z 19015KT 02/M01 A3016 RMK A01 T00151007  RH  085%=      5-min Rain = 0
KAM1 141957Z 19015KT 02/M01 A3016 RMK A01 T00151006  RH  086%=      5-min Rain = 0
KAM1 141958Z 19013KT 02/M01 A3016 RMK A01 T00151006  RH  086%=      5-min Rain = 0
KAM1 141959Z 19013G19KT 02/M01 A3016 RMK A01 T00151005  RH  086%=      5-min Rain = 0
KAM1 142000Z 20013G18KT 02/M01 A3016 RMK A01 T00151006  RH  086%=      5-min Rain = 0
KAM1 142001Z 20016KT 02/M00 A3016 RMK A01 T00161004  RH  086%=      5-min Rain = 0
KAM1 142002Z 20016KT 02/M01 A3016 RMK A01 T00161006  RH  085%=      5-min Rain = 0
KAM1 142003Z 18015KT 02/M01 A3016 RMK A01 T00151006  RH  086%=      5-min Rain = 0
KAM1 142004Z 19013KT 02/M01 A3015 RMK A01 T00151006  RH  086%=      5-min Rain = 0
KAM1 142005Z 19014KT 02/M01 A3015 RMK A01 T00151005  RH  086%=      5-min Rain = 0
KAM1 142006Z 20012KT 02/M00 A3015 RMK A01 T00161004  RH  087%=      5-min Rain = 0
KAM1 142007Z 19015KT 02/M00 A3015 RMK A01 T00181003  RH  086%=      5-min Rain = 0
KAM1 142008Z 20014KT 02/M00 A3015 RMK A01 T00191004  RH  085%=      5-min Rain = 0
KAM1 142009Z 20012KT 02/M00 A3015 RMK A01 T00181004  RH  085%=      5-min Rain = 0
KAM1 142010Z 20013KT 02/M00 A3015 RMK A01 T00191003  RH  085%=      5-min Rain = 0
KAM1 142011Z 21015KT 02/M01 A3015 RMK A01 T00181005  RH  085%=      5-min Rain = 0
KAM1 142012Z 20014KT 02/M01 A3015 RMK A01 T00161007  RH  085%=      5-min Rain = 0
KAM1 142013Z 19014KT 01/M01 A3015 RMK A01 T00141006  RH  086%=      5-min Rain = 0
KAM1 142014Z 19015KT 01/M01 A3015 RMK A01 T00141006  RH  087%=      5-min Rain = 0
KAM1 142015Z 20015KT 01/M01 A3015 RMK A01 T00131006  RH  087%=      5-min Rain = 0
KAM1 142016Z 20016KT 01/M01 A3015 RMK A01 T00131006  RH  087%=      5-min Rain = 0
KAM1 142017Z 19015KT 01/M01 A3015 RMK A01 T00131005  RH  088%=      5-min Rain = 0
KAM1 142018Z 19013KT 01/M00 A3015 RMK A01 T00131004  RH  088%=      5-min Rain = 0
KAM1 142019Z 19013KT 01/M00 A3015 RMK A01 T00141002  RH  089%=      5-min Rain = 0
KAM1 142020Z 19016KT 02/M00 A3015 RMK A01 T00161001  RH  089%=      5-min Rain = 0
KAM1 142021Z 19017KT 02/M00 A3014 RMK A01 T00171001  RH  087%=      5-min Rain = 0
KAM1 142022Z 19016KT 02/M00 A3014 RMK A01 T00171003  RH  087%=      5-min Rain = 0
KAM1 142023Z 19016KT 02/M00 A3015 RMK A01 T00181003  RH  086%=      5-min Rain = 0
KAM1 142024Z 20017KT 02/M00 A3014 RMK A01 T00191002  RH  086%=      5-min Rain = 0
KAM1 142025Z 20014KT 02/M00 A3014 RMK A01 T00201002  RH  086%=      5-min Rain = 0
KAM1 142026Z 21011G18KT 02/00 A3014 RMK A01 T00230002  RH  086%=      5-min Rain = 0
KAM1 142027Z 21014G19KT 03/00 A3014 RMK A01 T00250002  RH  085%=      5-min Rain = 0
KAM1 142028Z 19014KT 03/00 A3014 RMK A01 T00250000  RH  083%=      5-min Rain = 0
KAM1 142029Z 20015G20KT 03/00 A3014 RMK A01 T002500-0  RH  083%=      5-min Rain = 0
KAM1 142030Z 19017KT 02/M00 A3014 RMK A01 T00241002  RH  083%=      5-min Rain = 0
KAM1 142031Z 19013KT 02/M00 A3014 RMK A01 T00221002  RH  084%=      5-min Rain = 0
KAM1 142032Z 19014KT 02/M00 A3014 RMK A01 T00221001  RH  084%=      5-min Rain = 0
KAM1 142033Z 19017G22KT 02/M00 A3014 RMK A01 T00221002  RH  084%=      5-min Rain = 0
KAM1 142034Z 18018KT 02/M00 A3014 RMK A01 T00211003  RH  084%=      5-min Rain = 0
KAM1 142035Z 19017KT 02/M00 A3014 RMK A01 T00211003  RH  084%=      5-min Rain = 0
KAM1 142036Z 19013KT 02/M00 A3014 RMK A01 T00201003  RH  085%=      5-min Rain = 0
KAM1 142037Z 19016G21KT 02/M00 A3014 RMK A01 T00211001  RH  085%=      5-min Rain = 0
KAM1 142038Z 20017KT 02/M00 A3013 RMK A01 T00221001  RH  085%=      5-min Rain = 0
KAM1 142039Z 19016KT 02/M00 A3013 RMK A01 T00231001  RH  084%=      5-min Rain = 0
KAM1 142040Z 19016KT 02/M00 A3013 RMK A01 T00241001  RH  084%=      5-min Rain = 0
KAM1 142041Z 18017KT 02/M00 A3013 RMK A01 T00221004  RH  083%=      5-min Rain = 0
KAM1 142042Z 19017KT 02/M00 A3013 RMK A01 T00201004  RH  084%=      5-min Rain = 0
KAM1 142043Z 20017G22KT 02/M00 A3013 RMK A01 T00201003  RH  085%=      5-min Rain = 0
KAM1 142044Z 20015KT 02/M00 A3013 RMK A01 T00191003  RH  085%=      5-min Rain = 0
KAM1 142045Z 20018KT 02/M00 A3013 RMK A01 T00191003  RH  085%=      5-min Rain = 0
KAM1 142046Z 19016KT 02/M00 A3013 RMK A01 T00191003  RH  086%=      5-min Rain = 0
KAM1 142047Z 20018G23KT 02/M00 A3013 RMK A01 T00191002  RH  086%=      5-min Rain = 0
KAM1 142048Z 19019KT 02/M00 A3013 RMK A01 T00191003  RH  085%=      5-min Rain = 0
KAM1 142049Z 20018KT 02/M00 A3013 RMK A01 T00191003  RH  085%=      5-min Rain = 0
KAM1 142050Z 20015KT 02/M00 A3013 RMK A01 T00181004  RH  085%=      5-min Rain = 0
KAM1 142051Z 20018KT 02/M00 A3012 RMK A01 T00181003  RH  086%=      5-min Rain = 0
KAM1 142052Z 20016KT 02/M00 A3013 RMK A01 T00191003  RH  086%=      5-min Rain = 0
KAM1 142053Z 19016KT 02/M00 A3012 RMK A01 T00201001  RH  086%=      5-min Rain = 0
KAM1 142054Z 19015G20KT 02/00 A3012 RMK A01 T00230001  RH  086%=      5-min Rain = 0
KAM1 142055Z 19017KT 03/00 A3012 RMK A01 T00250001  RH  085%=      5-min Rain = 0
KAM1 142056Z 19021KT 03/00 A3012 RMK A01 T002500-0  RH  083%=      5-min Rain = 0
KAM1 142057Z 19019G26KT 03/M00 A3012 RMK A01 T00251001  RH  083%=      5-min Rain = 0
KAM1 142058Z 20019KT 03/M00 A3012 RMK A01 T00261001  RH  082%=      5-min Rain = 0
KAM1 142059Z 20018KT 03/M00 A3012 RMK A01 T00251002  RH  082%=      5-min Rain = 0
KAM1 142100Z 20017KT 03/M00 A3012 RMK A01 T00251001  RH  083%=      5-min Rain = 0
KAM1 142101Z 20019KT 03/M00 A3012 RMK A01 T00251002  RH  083%=      5-min Rain = 0
KAM1 142102Z 20018KT 02/M00 A3012 RMK A01 T00241002  RH  083%=      5-min Rain = 0
KAM1 142103Z 19015KT 02/M00 A3012 RMK A01 T00231002  RH  084%=      5-min Rain = 0
KAM1 142104Z 19014KT 02/00 A3012 RMK A01 T002300-0  RH  084%=      5-min Rain = 0
KAM1 142105Z 19017KT 02/00 A3012 RMK A01 T002400-0  RH  084%=      5-min Rain = 0
KAM1 142106Z 19017KT 02/M00 A3012 RMK A01 T00241002  RH  083%=      5-min Rain = 0
KAM1 142107Z 19018G23KT 02/M00 A3012 RMK A01 T00221003  RH  084%=      5-min Rain = 0
KAM1 142108Z 20017KT 02/M00 A3012 RMK A01 T00211003  RH  084%=      5-min Rain = 0
KAM1 142109Z 19017KT 02/M00 A3012 RMK A01 T00201003  RH  085%=      5-min Rain = 0
KAM1 142110Z 19016KT 02/M00 A3012 RMK A01 T00191003  RH  086%=      5-min Rain = 0
KAM1 142111Z 19015G20KT 02/M00 A3012 RMK A01 T00191002  RH  086%=      5-min Rain = 0
KAM1 142112Z 19016KT 02/M00 A3012 RMK A01 T00181002  RH  086%=      5-min Rain = 0
KAM1 142113Z 20015KT 02/M00 A3012 RMK A01 T00191001  RH  087%=      5-min Rain = 0
KAM1 142114Z 20015G20KT 02/M00 A3012 RMK A01 T00191001  RH  087%=      5-min Rain = 0
KAM1 142115Z 19016KT 02/M00 A3011 RMK A01 T00191001  RH  087%=      5-min Rain = 0
KAM1 142116Z 19015KT 02/00 A3011 RMK A01 T00200000  RH  087%=      5-min Rain = 0
KAM1 142117Z 18018G23KT 02/M00 A3011 RMK A01 T00201001  RH  086%=      5-min Rain = 0
KAM1 142118Z 19019KT 02/M00 A3011 RMK A01 T00191002  RH  086%=      5-min Rain = 0
KAM1 142119Z 19018KT 02/M00 A3011 RMK A01 T00181001  RH  087%=      5-min Rain = 0
KAM1 142120Z 20019KT 02/M00 A3011 RMK A01 T00181001  RH  087%=      5-min Rain = 0
KAM1 142121Z 19020G25KT 02/M00 A3011 RMK A01 T00171001  RH  087%=      5-min Rain = 0
KAM1 142122Z 19019KT 02/00 A3011 RMK A01 T001800-0  RH  088%=      5-min Rain = 0
KAM1 142123Z 20017KT 02/00 A3011 RMK A01 T001800-0  RH  088%=      5-min Rain = 0
KAM1 142124Z 19018KT 02/00 A3011 RMK A01 T00190000  RH  088%=      5-min Rain = 0
KAM1 142125Z 19019KT 02/00 A3011 RMK A01 T001900-0  RH  087%=      5-min Rain = 0
KAM1 142126Z 19014KT 02/00 A3011 RMK A01 T001900-0  RH  087%=      5-min Rain = 0
KAM1 142127Z 19018KT 02/00 A3011 RMK A01 T00200001  RH  087%=      5-min Rain = 0
KAM1 142128Z 19016G21KT 02/00 A3011 RMK A01 T00200001  RH  087%=      5-min Rain = 0
KAM1 142129Z 19016KT 02/00 A3011 RMK A01 T00200000  RH  087%=      5-min Rain = 0
KAM1 142130Z 19015KT 02/00 A3011 RMK A01 T00200001  RH  087%=      5-min Rain = 0
KAM1 142131Z 19016KT 02/00 A3011 RMK A01 T00210002  RH  087%=      5-min Rain = 0
KAM1 142132Z 18014G20KT 02/00 A3011 RMK A01 T00210001  RH  087%=      5-min Rain = 0
KAM1 142133Z 19018KT 02/00 A301 RMK A01 T00220001  RH  086%=      5-min Rain = 0
KAM1 142134Z 19020KT 02/00 A301 RMK A01 T00210000  RH  086%=      5-min Rain = 0
KAM1 142135Z 19016KT 02/00 A301 RMK A01 T002100-0  RH  086%=      5-min Rain = 0
KAM1 142136Z 19017G22KT 02/00 A301 RMK A01 T00200000  RH  087%=      5-min Rain = 0
KAM1 142137Z 19017KT 02/00 A301 RMK A01 T00200000  RH  087%=      5-min Rain = 0
KAM1 142138Z 20019KT 02/00 A301 RMK A01 T00200001  RH  087%=      5-min Rain = 0
KAM1 142139Z 19017KT 02/00 A301 RMK A01 T00210001  RH  087%=      5-min Rain = 0
KAM1 142140Z 19016KT 02/00 A301 RMK A01 T00210001  RH  087%=      5-min Rain = 0
KAM1 142141Z 20017G22KT 02/00 A301 RMK A01 T00220001  RH  086%=      5-min Rain = 0
KAM1 142142Z 19016G21KT 02/00 A301 RMK A01 T00220001  RH  086%=      5-min Rain = 0
KAM1 142143Z 19018G24KT 02/00 A301 RMK A01 T00220001  RH  086%=      5-min Rain = 0
KAM1 142144Z 19019KT 02/00 A301 RMK A01 T00220001  RH  086%=      5-min Rain = 0
KAM1 142145Z 20021KT 02/00 A301 RMK A01 T00210000  RH  086%=      5-min Rain = 0
KAM1 142146Z 19017KT 02/00 A301 RMK A01 T00210000  RH  086%=      5-min Rain = 0
KAM1 142147Z 19019KT 02/00 A301 RMK A01 T00210001  RH  087%=      5-min Rain = 0
KAM1 142148Z 18017KT 02/00 A301 RMK A01 T00210001  RH  087%=      5-min Rain = 0
KAM1 142149Z 19017KT 02/00 A301 RMK A01 T00220002  RH  087%=      5-min Rain = 0
KAM1 142150Z 19021KT 02/00 A301 RMK A01 T00220002  RH  086%=      5-min Rain = 0
KAM1 142151Z 19020KT 02/00 A301 RMK A01 T00220001  RH  086%=      5-min Rain = 0
KAM1 142152Z 19017G22KT 02/00 A301 RMK A01 T00220002  RH  086%=      5-min Rain = 0
KAM1 142153Z 20020KT 02/00 A301 RMK A01 T00230002  RH  086%=      5-min Rain = 0
KAM1 142154Z 20017KT 02/00 A301 RMK A01 T00230002  RH  086%=      5-min Rain = 0
KAM1 142155Z 20022KT 02/00 A301 RMK A01 T00230002  RH  086%=      5-min Rain = 0
KAM1 142156Z 20021G27KT 02/00 A301 RMK A01 T00230001  RH  085%=      5-min Rain = 0
KAM1 142157Z 19021KT 02/00 A301 RMK A01 T002200-0  RH  086%=      5-min Rain = 0
KAM1 142158Z 20018KT 02/00 A301 RMK A01 T00210000  RH  086%=      5-min Rain = 0
KAM1 142159Z 20019KT 02/00 A301 RMK A01 T00210001  RH  086%=      5-min Rain = 0
KAM1 142200Z 20019G24KT 02/00 A301 RMK A01 T00210000  RH  086%=      5-min Rain = 0
KAM1 142201Z 20016KT 02/00 A301 RMK A01 T00210001  RH  086%=      5-min Rain = 0
KAM1 142202Z 19017KT 02/00 A301 RMK A01 T00210001  RH  087%=      5-min Rain = 0
KAM1 142203Z 20016KT 02/00 A301 RMK A01 T00210001  RH  087%=      5-min Rain = 0
KAM1 142204Z 19018KT 02/00 A301 RMK A01 T00220002  RH  087%=      5-min Rain = 0
KAM1 142205Z 19019KT 02/00 A3009 RMK A01 T00220002  RH  086%=      5-min Rain = 0
KAM1 142206Z 19020KT 02/00 A301 RMK A01 T00220002  RH  086%=      5-min Rain = 0
KAM1 142207Z 20017KT 02/00 A3009 RMK A01 T00220001  RH  086%=      5-min Rain = 0
KAM1 142208Z 20016KT 02/00 A3009 RMK A01 T00210001  RH  087%=      5-min Rain = 0
KAM1 142209Z 19015KT 02/00 A301 RMK A01 T00220002  RH  087%=      5-min Rain = 0
KAM1 142210Z 20016KT 02/00 A301 RMK A01 T00230003  RH  087%=      5-min Rain = 0
KAM1 142211Z 19016KT 02/00 A3009 RMK A01 T00240003  RH  086%=      5-min Rain = 0
KAM1 142212Z 19017KT 02/00 A3009 RMK A01 T00240002  RH  086%=      5-min Rain = 0
KAM1 142213Z 19017KT 02/00 A3009 RMK A01 T00240003  RH  086%=      5-min Rain = 0
KAM1 142214Z 19016KT 02/00 A3009 RMK A01 T00240003  RH  086%=      5-min Rain = 0
KAM1 142215Z 19017G22KT 02/00 A3009 RMK A01 T00240004  RH  086%=      5-min Rain = 0
KAM1 142216Z 18019KT 02/00 A3009 RMK A01 T00240003  RH  086%=      5-min Rain = 0
KAM1 142217Z 19020KT 02/00 A3009 RMK A01 T00240002  RH  086%=      5-min Rain = 0
KAM1 142218Z 20019KT 02/00 A3009 RMK A01 T00240003  RH  086%=      5-min Rain = 0
KAM1 142219Z 19018KT 02/00 A3009 RMK A01 T00230003  RH  086%=      5-min Rain = 0
KAM1 142220Z 20018KT 02/00 A3009 RMK A01 T00240003  RH  086%=      5-min Rain = 0
KAM1 142221Z 20018KT 02/00 A3009 RMK A01 T00240002  RH  086%=      5-min Rain = 0
KAM1 142222Z 20018KT 02/00 A3009 RMK A01 T00230002  RH  086%=      5-min Rain = 0
KAM1 142223Z 19019KT 02/00 A3009 RMK A01 T00230002  RH  086%=      5-min Rain = 0
KAM1 142224Z 20018KT 02/00 A3009 RMK A01 T00230002  RH  086%=      5-min Rain = 0
KAM1 142225Z 19017KT 02/00 A3009 RMK A01 T00230002  RH  086%=      5-min Rain = 0
KAM1 142226Z 20015KT 02/00 A3009 RMK A01 T00230003  RH  087%=      5-min Rain = 0
KAM1 142227Z 20020KT 02/00 A3009 RMK A01 T00240004  RH  087%=      5-min Rain = 0
KAM1 142228Z 20017KT 02/00 A3009 RMK A01 T00240003  RH  086%=      5-min Rain = 0
KAM1 142229Z 19017G23KT 02/00 A3009 RMK A01 T00230003  RH  086%=      5-min Rain = 0
KAM1 142230Z 19018KT 02/00 A3009 RMK A01 T00240003  RH  086%=      5-min Rain = 0
KAM1 142231Z 19021KT 02/00 A3009 RMK A01 T00230003  RH  086%=      5-min Rain = 0
KAM1 142232Z 19018KT 02/00 A3009 RMK A01 T00220002  RH  087%=      5-min Rain = 0
KAM1 142233Z 19020KT 02/00 A3009 RMK A01 T00220002  RH  087%=      5-min Rain = 0
KAM1 142234Z 19020KT 02/00 A3009 RMK A01 T00220003  RH  087%=      5-min Rain = 0
KAM1 142235Z 19016KT 02/00 A3009 RMK A01 T00210002  RH  087%=      5-min Rain = 0
KAM1 142236Z 19018KT 02/00 A3009 RMK A01 T00210003  RH  088%=      5-min Rain = 0
KAM1 142237Z 19020KT 02/00 A3009 RMK A01 T00210002  RH  087%=      5-min Rain = 0
KAM1 142238Z 19020G26KT 02/00 A3009 RMK A01 T00210002  RH  087%=      5-min Rain = 0
KAM1 142239Z 19021KT 02/00 A3009 RMK A01 T00200002  RH  088%=      5-min Rain = 0
KAM1 142240Z 19020KT 02/00 A3009 RMK A01 T00190002  RH  088%=      5-min Rain = 0
KAM1 142241Z 19021G26KT 02/00 A3009 RMK A01 T00190002  RH  088%=      5-min Rain = 0
KAM1 142242Z 19019G24KT 02/00 A3009 RMK A01 T00200002  RH  089%=      5-min Rain = 0
KAM1 142243Z 20020G26KT 02/00 A3009 RMK A01 T00190002  RH  088%=      5-min Rain = 0
KAM1 142244Z 19022KT 02/00 A3009 RMK A01 T00190002  RH  088%=      5-min Rain = 0
KAM1 142245Z 20021KT 02/00 A3009 RMK A01 T00200002  RH  088%=      5-min Rain = 0
KAM1 142246Z 20017KT 02/00 A3009 RMK A01 T00190002  RH  088%=      5-min Rain = 0
KAM1 142247Z 19017KT 02/00 A3009 RMK A01 T00190003  RH  089%=      5-min Rain = 0
KAM1 142248Z 19019KT 02/00 A3009 RMK A01 T00200003  RH  089%=      5-min Rain = 0
KAM1 142249Z 19020G28KT 02/00 A3009 RMK A01 T00200003  RH  088%=      5-min Rain = 0
KAM1 142250Z 20019G25KT 02/00 A3009 RMK A01 T00200002  RH  088%=      5-min Rain = 0
KAM1 142251Z 19018G23KT 02/00 A3009 RMK A01 T00200002  RH  088%=      5-min Rain = 0
KAM1 142252Z 19020KT 02/00 A3009 RMK A01 T00200002  RH  088%=      5-min Rain = 0
KAM1 142253Z 19021KT 02/00 A3009 RMK A01 T00190002  RH  088%=      5-min Rain = 0
KAM1 142254Z 19016KT 02/00 A3009 RMK A01 T00190002  RH  088%=      5-min Rain = 0
KAM1 142255Z 20018KT 02/00 A3009 RMK A01 T00190002  RH  089%=      5-min Rain = 0
KAM1 142256Z 20017KT 02/00 A301 RMK A01 T00190002  RH  089%=      5-min Rain = 0
KAM1 142257Z 20018KT 02/00 A301 RMK A01 T00190003  RH  089%=      5-min Rain = 0
KAM1 142258Z 20016KT 02/00 A301 RMK A01 T00190003  RH  089%=      5-min Rain = 0
KAM1 142259Z 20014KT 02/00 A301 RMK A01 T00190003  RH  089%=      5-min Rain = 0
KAM1 142300Z 20014KT 02/00 A301 RMK A01 T00200003  RH  089%=      5-min Rain = 0
KAM1 142301Z 19014KT 02/00 A301 RMK A01 T00200004  RH  089%=      5-min Rain = 0
KAM1 142302Z 20014KT 02/00 A301 RMK A01 T00200004  RH  089%=      5-min Rain = 0
KAM1 142303Z 20013KT 02/00 A301 RMK A01 T00200004  RH  089%=      5-min Rain = 0
KAM1 142304Z 20015KT 02/00 A301 RMK A01 T00210004  RH  089%=      5-min Rain = 0
KAM1 142305Z 19013KT 02/00 A301 RMK A01 T00210004  RH  088%=      5-min Rain = 0
KAM1 142306Z 19015G20KT 02/00 A301 RMK A01 T00220004  RH  088%=      5-min Rain = 0
KAM1 142307Z 20016KT 02/00 A301 RMK A01 T00220004  RH  088%=      5-min Rain = 0
KAM1 142308Z 20016KT 02/00 A301 RMK A01 T00210004  RH  088%=      5-min Rain = 0
KAM1 142309Z 20013G18KT 02/00 A301 RMK A01 T00210004  RH  089%=      5-min Rain = 0
KAM1 142310Z 19013G18KT 02/00 A301 RMK A01 T00200004  RH  089%=      5-min Rain = 0
KAM1 142311Z 18019KT 02/00 A3009 RMK A01 T00200004  RH  089%=      5-min Rain = 0
KAM1 142312Z 19017KT 02/00 A3009 RMK A01 T00200004  RH  089%=      5-min Rain = 0
KAM1 142313Z 19015G20KT 02/00 A3009 RMK A01 T00190004  RH  090%=      5-min Rain = 0
KAM1 142314Z 19016KT 02/01 A3009 RMK A01 T00190005  RH  090%=      5-min Rain = 0
KAM1 142315Z 19017KT 02/01 A3009 RMK A01 T00190005  RH  090%=      5-min Rain = 0
KAM1 142316Z 19014KT 02/01 A3009 RMK A01 T00190005  RH  090%=      5-min Rain = 0
KAM1 142317Z 19015KT 02/01 A3009 RMK A01 T00190005  RH  090%=      5-min Rain = 0
KAM1 142318Z 19017KT 02/01 A3009 RMK A01 T00190005  RH  090%=      5-min Rain = 0
KAM1 142319Z 19017KT 02/01 A3009 RMK A01 T00190005  RH  090%=      5-min Rain = 0
KAM1 142320Z 19016G21KT 02/01 A3009 RMK A01 T00190005  RH  091%=      5-min Rain = 0
KAM1 142321Z 19016KT 02/01 A3009 RMK A01 T00180005  RH  091%=      5-min Rain = 0
KAM1 142322Z 19015KT 02/01 A3009 RMK A01 T00180005  RH  091%=      5-min Rain = 0
KAM1 142323Z 19016KT 02/01 A3009 RMK A01 T00190005  RH  091%=      5-min Rain = 0
KAM1 142324Z 19017G22KT 02/01 A3009 RMK A01 T00190005  RH  091%=      5-min Rain = 0
KAM1 142325Z 19018KT 02/01 A3009 RMK A01 T00180005  RH  091%=      5-min Rain = 0
KAM1 142326Z 19016KT 02/00 A3009 RMK A01 T00180004  RH  091%=      5-min Rain = 0
KAM1 142327Z 19017KT 02/01 A3009 RMK A01 T00180005  RH  091%=      5-min Rain = 0
KAM1 142328Z 18016KT 02/01 A3009 RMK A01 T00180005  RH  091%=      5-min Rain = 0
KAM1 142329Z 19015KT 02/01 A3009 RMK A01 T00180005  RH  091%=      5-min Rain = 0
KAM1 142330Z 19014KT 02/01 A3009 RMK A01 T00180005  RH  091%=      5-min Rain = 0
KAM1 142331Z 19013KT 02/01 A3009 RMK A01 T00180005  RH  091%=      5-min Rain = 0
KAM1 142332Z 19015KT 02/01 A3009 RMK A01 T00170005  RH  092%=      5-min Rain = 0
KAM1 142333Z 19018KT 02/01 A3009 RMK A01 T00180005  RH  091%=      5-min Rain = 0
KAM1 142334Z 19017KT 02/01 A3009 RMK A01 T00170005  RH  091%=      5-min Rain = 0
KAM1 142335Z 18016KT 02/01 A3009 RMK A01 T00170005  RH  092%=      5-min Rain = 0
KAM1 142336Z 19019G24KT 02/01 A3009 RMK A01 T00170005  RH  092%=      5-min Rain = 0
KAM1 142337Z 19015KT 02/00 A3009 RMK A01 T00170004  RH  092%=      5-min Rain = 0
KAM1 142338Z 19018KT 02/01 A3009 RMK A01 T00170005  RH  092%=      5-min Rain = 0
KAM1 142339Z 19017KT 02/01 A3009 RMK A01 T00170005  RH  092%=      5-min Rain = 0
KAM1 142340Z 20015KT 02/01 A3009 RMK A01 T00170005  RH  092%=      5-min Rain = 0
KAM1 142341Z 19013KT 02/01 A3009 RMK A01 T00170005  RH  092%=      5-min Rain = 0
KAM1 142342Z 20012KT 02/01 A3009 RMK A01 T00170006  RH  092%=      5-min Rain = 0
KAM1 142343Z 19012KT 02/01 A3009 RMK A01 T00170006  RH  093%=      5-min Rain = 0
KAM1 142344Z 19015KT 02/01 A3008 RMK A01 T00170006  RH  092%=      5-min Rain = 0
KAM1 142345Z 19016KT 02/01 A3009 RMK A01 T00170006  RH  092%=      5-min Rain = 0
KAM1 142346Z 19018KT 02/01 A3008 RMK A01 T00170006  RH  092%=      5-min Rain = 0
KAM1 142347Z 19017KT 02/01 A3008 RMK A01 T00160006  RH  093%=      5-min Rain = 0
KAM1 142348Z 20015KT 02/01 A3008 RMK A01 T00160005  RH  093%=      5-min Rain = 0
KAM1 142349Z 20015KT 02/01 A3008 RMK A01 T00160005  RH  093%=      5-min Rain = 0
KAM1 142350Z 19014KT 02/01 A3008 RMK A01 T00150005  RH  093%=      5-min Rain = 0
KAM1 142351Z 19016KT 02/01 A3008 RMK A01 T00150005  RH  093%=      5-min Rain = 0
KAM1 142352Z 19013G18KT 02/01 A3008 RMK A01 T00150005  RH  093%=      5-min Rain = 0
KAM1 142353Z 19015G20KT 02/01 A3008 RMK A01 T00150006  RH  093%=      5-min Rain = 0
KAM1 142354Z 18014KT 02/01 A3008 RMK A01 T00150005  RH  093%=      5-min Rain = 0
KAM1 142355Z 19014G21KT 02/01 A3008 RMK A01 T00150006  RH  093%=      5-min Rain = 0
KAM1 142356Z 18018G23KT 02/01 A3008 RMK A01 T00150006  RH  093%=      5-min Rain = 0
KAM1 142357Z 18016G21KT 02/01 A3008 RMK A01 T00150005  RH  094%=      5-min Rain = 0
KAM1 142358Z 19020G25KT 01/01 A3008 RMK A01 T00140005  RH  094%=      5-min Rain = 0
KAM1 142359Z 19015KT 01/01 A3008 RMK A01 T00130005  RH  094%=      5-min Rain = 0
KAM1 150000Z 19017G22KT 01/01 A3008 RMK A01 T00130005  RH  095%=      5-min Rain = 0
KAM1 150001Z 19019KT 01/01 A3008 RMK A01 T00130006  RH  095%=      5-min Rain = 0
KAM1 150002Z 19015KT 01/01 A3008 RMK A01 T00130005  RH  095%=      5-min Rain = 0
KAM1 150003Z 20015G23KT 01/01 A3008 RMK A01 T00120005  RH  095%=      5-min Rain = 0
KAM1 150004Z 20016G22KT 01/01 A3008 RMK A01 T00130005  RH  095%=      5-min Rain = 0
KAM1 150005Z 19015G20KT 01/01 A3008 RMK A01 T00120005  RH  095%=      5-min Rain = 0
KAM1 150006Z 19016KT 01/01 A3008 RMK A01 T00130005  RH  095%=      5-min Rain = 0
KAM1 150007Z 19011G17KT 01/01 A3008 RMK A01 T00130005  RH  095%=      5-min Rain = 0
KAM1 150008Z 19015KT 01/01 A3008 RMK A01 T00120005  RH  095%=      5-min Rain = 0
KAM1 150009Z 18013KT 01/01 A3008 RMK A01 T00130006  RH  095%=      5-min Rain = 0
KAM1 150010Z 19017KT 01/01 A3008 RMK A01 T00120006  RH  096%=      5-min Rain = 0
KAM1 150011Z 19018G23KT 01/01 A3008 RMK A01 T00120006  RH  096%=      5-min Rain = 0
KAM1 150012Z 19016G22KT 01/01 A3008 RMK A01 T00110006  RH  096%=      5-min Rain = 0
KAM1 150013Z 19017G23KT 01/01 A3008 RMK A01 T00120007  RH  096%=      5-min Rain = 0
KAM1 150014Z 19015G20KT 01/01 A3008 RMK A01 T00110006  RH  097%=      5-min Rain = 0
KAM1 150015Z 19019KT 01/01 A3008 RMK A01 T00110006  RH  097%=      5-min Rain = 0
KAM1 150016Z 19019KT 01/01 A3008 RMK A01 T00110006  RH  097%=      5-min Rain = 0
KAM1 150017Z 19015KT 01/01 A3008 RMK A01 T00110006  RH  097%=      5-min Rain = 0
KAM1 150018Z 19018G25KT 01/01 A3008 RMK A01 T00110006  RH  097%=      5-min Rain = 0
KAM1 150019Z 19019KT 01/01 A3008 RMK A01 T00110007  RH  097%=      5-min Rain = 0
KAM1 150020Z 19020G25KT 01/01 A3008 RMK A01 T00100006  RH  097%=      5-min Rain = 0
KAM1 150021Z 19022G28KT 01/01 A3008 RMK A01 T00100006  RH  097%=      5-min Rain = 0
KAM1 150022Z 19019G24KT 01/01 A3008 RMK A01 T00100006  RH  097%=      5-min Rain = 0
KAM1 150023Z 19018G23KT 01/01 A3008 RMK A01 T00100006  RH  097%=      5-min Rain = 0
KAM1 150024Z 20019KT 01/01 A3008 RMK A01 T00100006  RH  097%=      5-min Rain = 0
KAM1 150025Z 19015G20KT 01/01 A3008 RMK A01 T00100006  RH  097%=      5-min Rain = 0
KAM1 150026Z 19020KT 01/01 A3008 RMK A01 T00100006  RH  097%=      5-min Rain = 0
KAM1 150027Z 19020KT 01/01 A3008 RMK A01 T00100006  RH  097%=      5-min Rain = 0
KAM1 150028Z 19019G24KT 01/01 A3008 RMK A01 T00100006  RH  097%=      5-min Rain = 0
KAM1 150029Z 19020G25KT 01/01 A3008 RMK A01 T00100006  RH  097%=      5-min Rain = 0
KAM1 150030Z 19021G26KT 01/01 A3008 RMK A01 T00100006  RH  097%=      5-min Rain = 0
KAM1 150031Z 19021KT 01/01 A3008 RMK A01 T00100006  RH  097%=      5-min Rain = 0
KAM1 150032Z 19018KT 01/01 A3008 RMK A01 T00100005  RH  097%=      5-min Rain = 0
KAM1 150033Z 19016KT 01/01 A3008 RMK A01 T00100006  RH  097%=      5-min Rain = 0
KAM1 150034Z 18015KT 01/01 A3008 RMK A01 T00100006  RH  097%=      5-min Rain = 0
KAM1 150035Z 18016G21KT 01/01 A3008 RMK A01 T00100006  RH  097%=      5-min Rain = 0
KAM1 150036Z 19016G21KT 01/01 A3008 RMK A01 T00100006  RH  097%=      5-min Rain = 0
KAM1 150037Z 19015KT 01/01 A3008 RMK A01 T00100006  RH  097%=      5-min Rain = 0
KAM1 150038Z 18017G22KT 01/01 A3008 RMK A01 T00100006  RH  097%=      5-min Rain = 0
KAM1 150039Z 18014G19KT 01/01 A3008 RMK A01 T00100007  RH  097%=      5-min Rain = 0
KAM1 150040Z 18016KT 01/01 A3008 RMK A01 T00100007  RH  098%=      5-min Rain = 0
KAM1 150041Z 18018KT 01/01 A3008 RMK A01 T00100006  RH  098%=      5-min Rain = 0
KAM1 150042Z 18018KT 01/01 A3008 RMK A01 T00100007  RH  098%=      5-min Rain = 0
KAM1 150043Z 19019G24KT 01/01 A3008 RMK A01 T00090007  RH  098%=      5-min Rain = 0
KAM1 150044Z 18018KT 01/01 A3007 RMK A01 T00090007  RH  098%=      5-min Rain = 0
KAM1 150045Z 18018KT 01/01 A3007 RMK A01 T00090007  RH  098%=      5-min Rain = 0
KAM1 150046Z 19018KT 01/01 A3007 RMK A01 T00090007  RH  098%=      5-min Rain = 0
KAM1 150047Z 18021G26KT 01/01 A3007 RMK A01 T00090007  RH  099%=      5-min Rain = 0
KAM1 150048Z 18019KT 01/01 A3007 RMK A01 T00080007  RH  099%=      5-min Rain = 0
KAM1 150049Z 19021G27KT 01/01 A3007 RMK A01 T00090007  RH  099%=      5-min Rain = 0
KAM1 150050Z 18022G27KT 01/01 A3007 RMK A01 T00080007  RH  099%=      5-min Rain = 0
KAM1 150051Z 18022G27KT 01/01 A3007 RMK A01 T00080006  RH  099%=      5-min Rain = 0
KAM1 150052Z 18023KT 01/01 A3007 RMK A01 T00080007  RH  099%=      5-min Rain = 0
KAM1 150053Z 18021KT 01/01 A3007 RMK A01 T00080007  RH  099%=      5-min Rain = 0
KAM1 150054Z 19020G25KT 01/01 A3007 RMK A01 T00080007  RH  099%=      5-min Rain = 0
KAM1 150055Z 19023G28KT 01/01 A3007 RMK A01 T00070007  RH  099%=      5-min Rain = 0
KAM1 150056Z 19020G25KT 01/01 A3007 RMK A01 T00080007  RH  099%=      5-min Rain = 0
KAM1 150057Z 19021G27KT 01/01 A3007 RMK A01 T00080007  RH  099%=      5-min Rain = 0
KAM1 150058Z 19018KT 01/01 A3007 RMK A01 T00080006  RH  099%=      5-min Rain = 0
KAM1 150059Z 18018KT 01/01 A3007 RMK A01 T00070006  RH  099%=      5-min Rain = 0
KAM1 150100Z 18021KT 01/01 A3007 RMK A01 T00070006  RH  099%=      5-min Rain = 0
KAM1 150101Z 18019KT 01/01 A3007 RMK A01 T00080006  RH  099%=      5-min Rain = 0
KAM1 150102Z 18020KT 01/01 A3007 RMK A01 T00080007  RH  099%=      5-min Rain = 0
KAM1 150103Z 18020KT 01/01 A3007 RMK A01 T00080007  RH  099%=      5-min Rain = 0
KAM1 150104Z 18020KT 01/01 A3007 RMK A01 T00070007  RH  100%=      5-min Rain = 0
KAM1 150105Z 18020KT 01/01 A3007 RMK A01 T00080008  RH  100%=      5-min Rain = 0
KAM1 150106Z 18018KT 01/01 A3007 RMK A01 T00070007  RH  100%=      5-min Rain = 0
KAM1 150107Z 18018KT 01/01 A3007 RMK A01 T00070007  RH  100%=      5-min Rain = 0
KAM1 150108Z 18020G26KT 01/01 A3007 RMK A01 T00070007  RH  100%=      5-min Rain = 0
KAM1 150109Z 18020G25KT 01/01 A3007 RMK A01 T00070007  RH  100%=      5-min Rain = 0
KAM1 150110Z 18021G26KT 01/01 A3007 RMK A01 T00070007  RH  100%=      5-min Rain = 0
KAM1 150111Z 18020KT 01/01 A3008 RMK A01 T00070007  RH  100%=      5-min Rain = 0
KAM1 150112Z 19020G27KT 01/01 A3008 RMK A01 T00070007  RH  100%=      5-min Rain = 0
KAM1 150113Z 18022G27KT 01/01 A3008 RMK A01 T00070007  RH  100%=      5-min Rain = 0
KAM1 150114Z 18020KT 01/01 A3008 RMK A01 T00070007  RH  100%=      5-min Rain = 0
KAM1 150115Z 19022G28KT 01/01 A3008 RMK A01 T00070007  RH  100%=      5-min Rain = 0
KAM1 150116Z 18022G27KT 01/01 A3008 RMK A01 T00060006  RH  100%=      5-min Rain = 0
KAM1 150117Z 19023KT 01/01 A3008 RMK A01 T00070006  RH  100%=      5-min Rain = 0
KAM1 150118Z 19017KT 01/01 A3008 RMK A01 T00070007  RH  100%=      5-min Rain = 0
KAM1 150119Z 18018KT 01/01 A3008 RMK A01 T00070007  RH  100%=      5-min Rain = 0
KAM1 150120Z 19018KT 01/01 A3008 RMK A01 T00070006  RH  100%=      5-min Rain = 0
KAM1 150121Z 19019KT 01/01 A3008 RMK A01 T00060006  RH  100%=      5-min Rain = 0
KAM1 150122Z 19019G24KT 01/01 A3008 RMK A01 T00070007  RH  100%=      5-min Rain = 0
KAM1 150123Z 19018KT 01/01 A3008 RMK A01 T00070007  RH  100%=      5-min Rain = 0
KAM1 150124Z 19017KT 01/01 A3008 RMK A01 T00070007  RH  100%=      5-min Rain = 0
KAM1 150125Z 18018G23KT 01/01 A3008 RMK A01 T00070007  RH  100%=      5-min Rain = 0
KAM1 150126Z 19018KT 01/01 A3008 RMK A01 T00070006  RH  100%=      5-min Rain = 0
KAM1 150127Z 19019KT 01/01 A3008 RMK A01 T00070006  RH  100%=      5-min Rain = 0
KAM1 150128Z 19020KT 01/01 A3008 RMK A01 T00070007  RH  100%=      5-min Rain = 0
KAM1 150129Z 18020KT 01/01 A3008 RMK A01 T00070006  RH  100%=      5-min Rain = 0
KAM1 150130Z 19018KT 01/01 A3008 RMK A01 T00070007  RH  100%=      5-min Rain = 0
KAM1 150131Z 18020KT 01/01 A3008 RMK A01 T00070007  RH  100%=      5-min Rain = 0
KAM1 150132Z 19019KT 01/01 A3008 RMK A01 T00070006  RH  100%=      5-min Rain = 0
KAM1 150133Z 18022G28KT 01/01 A3008 RMK A01 T00070007  RH  100%=      5-min Rain = 0
KAM1 150134Z 19022G28KT 01/01 A3008 RMK A01 T00070007  RH  100%=      5-min Rain = 0
KAM1 150135Z 19022KT 01/01 A3008 RMK A01 T00070007  RH  100%=      5-min Rain = 0
KAM1 150136Z 19021G27KT 01/01 A3008 RMK A01 T00070006  RH  100%=      5-min Rain = 0
KAM1 150137Z 19017G22KT 01/01 A3008 RMK A01 T00070007  RH  100%=      5-min Rain = 0
KAM1 150138Z 18015G20KT 01/01 A3008 RMK A01 T00070006  RH  100%=      5-min Rain = 0
KAM1 150139Z 18021KT 01/01 A3008 RMK A01 T00070006  RH  100%=      5-min Rain = 0
KAM1 150140Z 18021KT 01/01 A3008 RMK A01 T00070007  RH  100%=      5-min Rain = 0
KAM1 150141Z 19019KT 01/01 A3008 RMK A01 T00070007  RH  100%=      5-min Rain = 0
KAM1 150142Z 18019G24KT 01/01 A3008 RMK A01 T00070007  RH  100%=      5-min Rain = 0
KAM1 150143Z 18020G25KT 01/01 A3008 RMK A01 T00070006  RH  100%=      5-min Rain = 0
KAM1 150144Z 19023KT 01/01 A3008 RMK A01 T00070007  RH  100%=      5-min Rain = 0
KAM1 150145Z 19025KT 01/01 A3008 RMK A01 T00070007  RH  100%=      5-min Rain = 0
KAM1 150146Z 18022KT 01/01 A3008 RMK A01 T00070007  RH  100%=      5-min Rain = 0
KAM1 150147Z 19022KT 01/01 A3008 RMK A01 T00070006  RH  100%=      5-min Rain = 0
KAM1 150148Z 19021KT 01/01 A3008 RMK A01 T00070007  RH  100%=      5-min Rain = 0
KAM1 150149Z 19022G27KT 01/01 A3008 RMK A01 T00070006  RH  100%=      5-min Rain = 0
KAM1 150150Z 19019G24KT 01/01 A3008 RMK A01 T00070007  RH  100%=      5-min Rain = 0
KAM1 150151Z 19019KT 01/01 A3008 RMK A01 T00070007  RH  100%=      5-min Rain = 0
KAM1 150152Z 19018KT 01/01 A3008 RMK A01 T00070006  RH  100%=      5-min Rain = 0
KAM1 150153Z 19019KT 01/01 A3008 RMK A01 T00070007  RH  100%=      5-min Rain = 0
KAM1 150154Z 19020KT 01/01 A3008 RMK A01 T00070007  RH  100%=      5-min Rain = 0
KAM1 150155Z 19018KT 01/01 A3008 RMK A01 T00070007  RH  100%=      5-min Rain = 0
KAM1 150156Z 19018KT 01/01 A3008 RMK A01 T00070007  RH  100%=      5-min Rain = 0
KAM1 150157Z 19019KT 01/01 A3008 RMK A01 T00070007  RH  100%=      5-min Rain = 0
KAM1 150158Z 19018KT 01/01 A3008 RMK A01 T00070007  RH  100%=      5-min Rain = 0
KAM1 150159Z 18015G21KT 01/01 A3009 RMK A01 T00070007  RH  100%=      5-min Rain = 0
KAM1 150200Z 19020KT 01/01 A3008 RMK A01 T00070007  RH  100%=      5-min Rain = 0
KAM1 150201Z 19020KT 01/01 A3009 RMK A01 T00070007  RH  100%=      5-min Rain = 0
KAM1 150202Z 19017KT 01/01 A3009 RMK A01 T00070007  RH  100%=      5-min Rain = 0
KAM1 150203Z 19017KT 01/01 A3009 RMK A01 T00070007  RH  100%=      5-min Rain = 0
KAM1 150204Z 18020KT 01/01 A3008 RMK A01 T00070007  RH  100%=      5-min Rain = 0
KAM1 150205Z 19017G23KT 01/01 A3008 RMK A01 T00070007  RH  100%=      5-min Rain = 0
KAM1 150206Z 19021KT 01/01 A3008 RMK A01 T00070007  RH  100%=      5-min Rain = 0
KAM1 150207Z 19019G26KT 01/01 A3008 RMK A01 T00070007  RH  100%=      5-min Rain = 0
KAM1 150208Z 19017KT 01/01 A3009 RMK A01 T00070007  RH  100%=      5-min Rain = 0
KAM1 150209Z 19020G27KT 01/01 A3008 RMK A01 T00070007  RH  100%=      5-min Rain = 0
KAM1 150210Z 19022G27KT 01/01 A3008 RMK A01 T00070007  RH  100%=      5-min Rain = 0
KAM1 150211Z 20023KT 01/01 A3008 RMK A01 T00070007  RH  100%=      5-min Rain = 0
KAM1 150212Z 19022KT 01/01 A3008 RMK A01 T00070007  RH  100%=      5-min Rain = 0
KAM1 150213Z 20020G25KT 01/01 A3008 RMK A01 T00070007  RH  100%=      5-min Rain = 0
KAM1 150214Z 19017KT 01/01 A3008 RMK A01 T00070007  RH  100%=      5-min Rain = 0
KAM1 150215Z 19018KT 01/01 A3008 RMK A01 T00070007  RH  100%=      5-min Rain = 0
KAM1 150216Z 19019KT 01/01 A3008 RMK A01 T00070007  RH  100%=      5-min Rain = 0
KAM1 150217Z 19017KT 01/01 A3008 RMK A01 T00070007  RH  100%=      5-min Rain = 0
KAM1 150218Z 19017KT 01/01 A3008 RMK A01 T00070007  RH  100%=      5-min Rain = 0
KAM1 150219Z 19018G24KT 01/01 A3008 RMK A01 T00070007  RH  100%=      5-min Rain = 0
KAM1 150220Z 19019G24KT 01/01 A3008 RMK A01 T00070007  RH  100%=      5-min Rain = 0
KAM1 150221Z 19017KT 01/01 A3008 RMK A01 T00070007  RH  100%=      5-min Rain = 0
KAM1 150222Z 19020KT 01/01 A3008 RMK A01 T00070007  RH  100%=      5-min Rain = 0
KAM1 150223Z 19018KT 01/01 A3008 RMK A01 T00070007  RH  100%=      5-min Rain = 0
KAM1 150224Z 19017KT 01/01 A3008 RMK A01 T00070007  RH  100%=      5-min Rain = 0
KAM1 150225Z 19017KT 01/01 A3008 RMK A01 T00070007  RH  100%=      5-min Rain = 0
KAM1 150226Z 19020G28KT 01/01 A3008 RMK A01 T00070007  RH  100%=      5-min Rain = 0
KAM1 150227Z 19021G27KT 01/01 A3008 RMK A01 T00070007  RH  100%=      5-min Rain = 0
KAM1 150228Z 19020KT 01/01 A3008 RMK A01 T00070007  RH  100%=      5-min Rain = 0
KAM1 150229Z 19019KT 01/01 A3008 RMK A01 T00070007  RH  100%=      5-min Rain = 0
KAM1 150230Z 19018KT 01/01 A3008 RMK A01 T00070007  RH  100%=      5-min Rain = 0
KAM1 150231Z 18022KT 01/01 A3008 RMK A01 T00060006  RH  100%=      5-min Rain = 0
KAM1 150232Z 19018G24KT 01/01 A3008 RMK A01 T00070006  RH  100%=      5-min Rain = 0
KAM1 150233Z 19020G25KT 01/01 A3008 RMK A01 T00070006  RH  100%=      5-min Rain = 0
KAM1 150234Z 19018G23KT 01/01 A3008 RMK A01 T00070006  RH  100%=      5-min Rain = 0
KAM1 150235Z 19019KT 01/01 A3008 RMK A01 T00070006  RH  100%=      5-min Rain = 0
KAM1 150236Z 19018KT 01/01 A3008 RMK A01 T00070007  RH  100%=      5-min Rain = 0
KAM1 150237Z 19020KT 01/01 A3008 RMK A01 T00070006  RH  100%=      5-min Rain = 0
KAM1 150238Z 19018KT 01/01 A3009 RMK A01 T00070007  RH  100%=      5-min Rain = 0
KAM1 150239Z 19018KT 01/01 A3009 RMK A01 T00070006  RH  100%=      5-min Rain = 0
KAM1 150240Z 19019G24KT 01/01 A3009 RMK A01 T00070007  RH  100%=      5-min Rain = 0
KAM1 150241Z 19018G23KT 01/01 A3009 RMK A01 T00070006  RH  100%=      5-min Rain = 0
KAM1 150242Z 19019KT 01/01 A3009 RMK A01 T00070006  RH  100%=      5-min Rain = 0
KAM1 150243Z 19022KT 01/01 A3008 RMK A01 T00070006  RH  100%=      5-min Rain = 0
KAM1 150244Z 19019KT 01/01 A3009 RMK A01 T00070006  RH  100%=      5-min Rain = 0
KAM1 150245Z 19020KT 01/01 A3009 RMK A01 T00070006  RH  100%=      5-min Rain = 0
KAM1 150246Z 19023G28KT 01/01 A3008 RMK A01 T00070006  RH  100%=      5-min Rain = 0
KAM1 150247Z 19022G28KT 01/01 A3008 RMK A01 T00070007  RH  100%=      5-min Rain = 0
KAM1 150248Z 19022KT 01/01 A3008 RMK A01 T00070007  RH  100%=      5-min Rain = 0
KAM1 150249Z 19023KT 01/01 A3008 RMK A01 T00070007  RH  100%=      5-min Rain = 0
KAM1 150250Z 19021G26KT 01/01 A3009 RMK A01 T00070007  RH  100%=      5-min Rain = 0
KAM1 150251Z 19024KT 01/01 A3008 RMK A01 T00070007  RH  100%=      5-min Rain = 0
KAM1 150252Z 19020G27KT 01/01 A3008 RMK A01 T00070007  RH  100%=      5-min Rain = 0
KAM1 150253Z 19018KT 01/01 A3009 RMK A01 T00070007  RH  100%=      5-min Rain = 0
KAM1 150254Z 19022KT 01/01 A3008 RMK A01 T00070007  RH  100%=      5-min Rain = 0
KAM1 150255Z 19021KT 01/01 A3008 RMK A01 T00070007  RH  100%=      5-min Rain = 0
KAM1 150256Z 19019G24KT 01/01 A3009 RMK A01 T00080007  RH  100%=      5-min Rain = 0
KAM1 150257Z 19019KT 01/01 A3008 RMK A01 T00070007  RH  100%=      5-min Rain = 0
KAM1 150258Z 19019G24KT 01/01 A3008 RMK A01 T00080008  RH  100%=      5-min Rain = 0
KAM1 150259Z 18020KT 01/01 A3009 RMK A01 T00080007  RH  100%=      5-min Rain = 0
KAM1 150300Z 19019G24KT 01/01 A3008 RMK A01 T00070007  RH  100%=      5-min Rain = 0
KAM1 150301Z 19020G26KT 01/01 A3008 RMK A01 T00070007  RH  100%=      5-min Rain = 0
KAM1 150302Z 19021KT 01/01 A3008 RMK A01 T00080007  RH  100%=      5-min Rain = 0
KAM1 150303Z 19022KT 01/01 A3009 RMK A01 T00070007  RH  100%=      5-min Rain = 0
KAM1 150304Z 19020KT 01/01 A3009 RMK A01 T00070007  RH  100%=      5-min Rain = 0
KAM1 150305Z 19019KT 01/01 A3009 RMK A01 T00070007  RH  100%=      5-min Rain = 0
KAM1 150306Z 19017KT 01/01 A3009 RMK A01 T00070007  RH  100%=      5-min Rain = 0
KAM1 150307Z 19018KT 01/01 A3009 RMK A01 T00070007  RH  100%=      5-min Rain = 0
KAM1 150308Z 19020KT 01/01 A3009 RMK A01 T00070007  RH  100%=      5-min Rain = 0
KAM1 150309Z 19019KT 01/01 A3009 RMK A01 T00070007  RH  100%=      5-min Rain = 0
KAM1 150310Z 19018KT 01/01 A3009 RMK A01 T00070007  RH  100%=      5-min Rain = 0
KAM1 150311Z 19017KT 01/01 A3009 RMK A01 T00070007  RH  100%=      5-min Rain = 0
KAM1 150312Z 19015KT 01/01 A3009 RMK A01 T00070007  RH  100%=      5-min Rain = 0
KAM1 150313Z 19016G23KT 01/01 A3009 RMK A01 T00070007  RH  100%=      5-min Rain = 0
KAM1 150314Z 19019KT 01/01 A3009 RMK A01 T00070007  RH  100%=      5-min Rain = 0
KAM1 150315Z 19018KT 01/01 A3009 RMK A01 T00070007  RH  100%=      5-min Rain = 0
KAM1 150316Z 19017KT 01/01 A301 RMK A01 T00070007  RH  100%=      5-min Rain = 0
KAM1 150317Z 19021KT 01/01 A3009 RMK A01 T00070007  RH  100%=      5-min Rain = 0
KAM1 150318Z 19019KT 01/01 A3009 RMK A01 T00070007  RH  100%=      5-min Rain = 0
KAM1 150319Z 19022KT 01/01 A3009 RMK A01 T00070007  RH  100%=      5-min Rain = 0
KAM1 150320Z 19018KT 01/01 A3009 RMK A01 T00070007  RH  100%=      5-min Rain = 0
KAM1 150321Z 19019KT 01/01 A301 RMK A01 T00070007  RH  100%=      5-min Rain = 0
KAM1 150322Z 20019KT 01/01 A3009 RMK A01 T00070007  RH  100%=      5-min Rain = 0
KAM1 150323Z 20014KT 01/01 A301 RMK A01 T00070007  RH  100%=      5-min Rain = 0
KAM1 150324Z 19017G22KT 01/01 A3009 RMK A01 T00070007  RH  100%=      5-min Rain = 0
KAM1 150325Z 20016KT 01/01 A3009 RMK A01 T00070007  RH  100%=      5-min Rain = 0
KAM1 150326Z 19020KT 01/01 A3009 RMK A01 T00070006  RH  100%=      5-min Rain = 0
KAM1 150327Z 19017KT 01/01 A301 RMK A01 T00070007  RH  100%=      5-min Rain = 0
KAM1 150328Z 19017KT 01/01 A3009 RMK A01 T00070006  RH  100%=      5-min Rain = 0
KAM1 150329Z 19015KT 01/01 A301 RMK A01 T00070007  RH  100%=      5-min Rain = 0
KAM1 150330Z 19014G19KT 01/01 A301 RMK A01 T00060006  RH  100%=      5-min Rain = 0
KAM1 150331Z 20015KT 01/01 A301 RMK A01 T00060006  RH  100%=      5-min Rain = 0
KAM1 150332Z 20017KT 01/01 A301 RMK A01 T00070007  RH  100%=      5-min Rain = 0
KAM1 150333Z 20014KT 01/01 A301 RMK A01 T00060006  RH  100%=      5-min Rain = 0
KAM1 150334Z 20015KT 01/01 A301 RMK A01 T00060006  RH  100%=      5-min Rain = 0
KAM1 150335Z 19011KT 01/01 A301 RMK A01 T00060006  RH  100%=      5-min Rain = 0
KAM1 150336Z 20012KT 01/01 A301 RMK A01 T00060006  RH  100%=      5-min Rain = 0
KAM1 150337Z 20011KT 01/01 A301 RMK A01 T00060005  RH  100%=      5-min Rain = 0
KAM1 150338Z 20013KT 01/01 A301 RMK A01 T00050005  RH  100%=      5-min Rain = 0
KAM1 150339Z 20010KT 01/01 A301 RMK A01 T00050005  RH  100%=      5-min Rain = 0
KAM1 150340Z 20011KT 01/01 A301 RMK A01 T00050005  RH  100%=      5-min Rain = 0
KAM1 150341Z 20009KT 01/01 A301 RMK A01 T00050005  RH  100%=      5-min Rain = 0
KAM1 150342Z 20011KT 00/00 A301 RMK A01 T00040004  RH  100%=      5-min Rain = 0
KAM1 150343Z 20012KT 00/00 A301 RMK A01 T00040004  RH  100%=      5-min Rain = 0
KAM1 150344Z 20013KT 00/00 A301 RMK A01 T00040004  RH  100%=      5-min Rain = 0
KAM1 150345Z 20013KT 01/00 A301 RMK A01 T00050004  RH  100%=      5-min Rain = 0
KAM1 150346Z 20011KT 01/01 A301 RMK A01 T00050005  RH  100%=      5-min Rain = 0
KAM1 150347Z 20010KT 01/01 A301 RMK A01 T00050005  RH  100%=      5-min Rain = 0
KAM1 150348Z 20013KT 01/01 A301 RMK A01 T00050005  RH  100%=      5-min Rain = 0
KAM1 150349Z 20012KT 01/01 A301 RMK A01 T00050005  RH  100%=      5-min Rain = 0
KAM1 150350Z 19013KT 01/01 A301 RMK A01 T00050005  RH  100%=      5-min Rain = 0
KAM1 150351Z 19013KT 01/01 A301 RMK A01 T00050005  RH  100%=      5-min Rain = 0
KAM1 150352Z 19012KT 01/01 A301 RMK A01 T00050005  RH  100%=      5-min Rain = 0
KAM1 150353Z 20012KT 01/01 A301 RMK A01 T00050005  RH  100%=      5-min Rain = 0
KAM1 150354Z 20011KT 00/00 A301 RMK A01 T00040004  RH  100%=      5-min Rain = 0
KAM1 150355Z 20011KT 00/00 A301 RMK A01 T00040004  RH  100%=      5-min Rain = 0
KAM1 150356Z 19010KT 00/00 A301 RMK A01 T00040004  RH  100%=      5-min Rain = 0
KAM1 150357Z 20012KT 00/00 A301 RMK A01 T00040004  RH  100%=      5-min Rain = 0
KAM1 150358Z 20011KT 00/00 A301 RMK A01 T00040004  RH  100%=      5-min Rain = 0
KAM1 150359Z 20010KT 00/00 A301 RMK A01 T00040004  RH  100%=      5-min Rain = 0
KAM1 150400Z 19011KT 00/00 A301 RMK A01 T00040004  RH  100%=      5-min Rain = 0
KAM1 150401Z 19011KT 00/00 A301 RMK A01 T00040004  RH  100%=      5-min Rain = 0
KAM1 150402Z 19012KT 00/00 A301 RMK A01 T00040004  RH  100%=      5-min Rain = 0
KAM1 150403Z 19012KT 00/00 A301 RMK A01 T00040004  RH  100%=      5-min Rain = 0
KAM1 150404Z 19010KT 00/00 A301 RMK A01 T00040004  RH  100%=      5-min Rain = 0
KAM1 150405Z 20012KT 00/00 A301 RMK A01 T00040004  RH  100%=      5-min Rain = 0
KAM1 150406Z 19011KT 00/00 A301 RMK A01 T00040004  RH  100%=      5-min Rain = 0
KAM1 150407Z 19009KT 00/00 A301 RMK A01 T00040004  RH  100%=      5-min Rain = 0
KAM1 150408Z 19011KT 00/00 A301 RMK A01 T00040004  RH  100%=      5-min Rain = 0
KAM1 150409Z 19011KT 00/00 A301 RMK A01 T00040004  RH  100%=      5-min Rain = 0
KAM1 150410Z 20011KT 00/00 A301 RMK A01 T00040004  RH  100%=      5-min Rain = 0
KAM1 150411Z 19011KT 01/01 A301 RMK A01 T00050005  RH  100%=      5-min Rain = 0
KAM1 150412Z 19009KT 01/01 A301 RMK A01 T00050005  RH  100%=      5-min Rain = 0
KAM1 150413Z 20013KT 01/01 A301 RMK A01 T00050005  RH  100%=      5-min Rain = 0
KAM1 150414Z 20011KT 01/01 A301 RMK A01 T00050005  RH  100%=      5-min Rain = 0
KAM1 150415Z 20009KT 01/01 A301 RMK A01 T00060006  RH  100%=      5-min Rain = 0
KAM1 150416Z 20010KT 01/01 A301 RMK A01 T00050005  RH  100%=      5-min Rain = 0
KAM1 150417Z 19010KT 01/01 A301 RMK A01 T00050005  RH  100%=      5-min Rain = 0
KAM1 150418Z 20011KT 01/01 A301 RMK A01 T00050005  RH  100%=      5-min Rain = 0
KAM1 150419Z 20009KT 01/01 A301 RMK A01 T00050005  RH  100%=      5-min Rain = 0
KAM1 150420Z 20010KT 01/01 A301 RMK A01 T00050005  RH  100%=      5-min Rain = 0
KAM1 150421Z 20010KT 01/01 A301 RMK A01 T00050005  RH  100%=      5-min Rain = 0
KAM1 150422Z 20010KT 01/01 A301 RMK A01 T00050005  RH  100%=      5-min Rain = 0
KAM1 150423Z 20010KT 01/01 A301 RMK A01 T00050005  RH  100%=      5-min Rain = 0
KAM1 150424Z 19009KT 01/01 A301 RMK A01 T00050005  RH  100%=      5-min Rain = 0
KAM1 150425Z 20010KT 01/01 A301 RMK A01 T00050005  RH  100%=      5-min Rain = 0
KAM1 150426Z 20009KT 01/01 A301 RMK A01 T00050005  RH  100%=      5-min Rain = 0
KAM1 150427Z 20009KT 01/01 A301 RMK A01 T00050005  RH  100%=      5-min Rain = 0
KAM1 150428Z 19009KT 01/01 A301 RMK A01 T00060005  RH  100%=      5-min Rain = 0
KAM1 150429Z 20010KT 01/01 A301 RMK A01 T00060005  RH  100%=      5-min Rain = 0
KAM1 150430Z 20010KT 01/01 A301 RMK A01 T00060005  RH  100%=      5-min Rain = 0
KAM1 150431Z 19011KT 01/01 A301 RMK A01 T00060006  RH  100%=      5-min Rain = 0
KAM1 150432Z 20010KT 01/01 A301 RMK A01 T00080007  RH  100%=      5-min Rain = 0
KAM1 150433Z 20011KT 01/01 A301 RMK A01 T00090008  RH  100%=      5-min Rain = 0
KAM1 150434Z 20010KT 01/01 A301 RMK A01 T00090009  RH  100%=      5-min Rain = 0
KAM1 150435Z 20009KT 01/01 A301 RMK A01 T00090009  RH  100%=      5-min Rain = 0
KAM1 150436Z 20010KT 01/01 A301 RMK A01 T00090009  RH  100%=      5-min Rain = 0
KAM1 150437Z 20009KT 01/01 A301 RMK A01 T00090009  RH  100%=      5-min Rain = 0
KAM1 150438Z 20009KT 01/01 A301 RMK A01 T00100010  RH  100%=      5-min Rain = 0
KAM1 150439Z 20008KT 01/01 A301 RMK A01 T00100010  RH  100%=      5-min Rain = 0
KAM1 150440Z 20009KT 01/01 A301 RMK A01 T00100010  RH  100%=      5-min Rain = 0
KAM1 150441Z 20010KT 01/01 A301 RMK A01 T00100010  RH  100%=      5-min Rain = 0
KAM1 150442Z 20008KT 01/01 A301 RMK A01 T00100010  RH  100%=      5-min Rain = 0
KAM1 150443Z 21009KT 01/01 A301 RMK A01 T00110011  RH  100%=      5-min Rain = 0
KAM1 150444Z 21010KT 01/01 A301 RMK A01 T00120012  RH  100%=      5-min Rain = 0
KAM1 150445Z 21009KT 01/01 A301 RMK A01 T00120012  RH  100%=      5-min Rain = 0
KAM1 150446Z 21010KT 01/01 A301 RMK A01 T00110011  RH  100%=      5-min Rain = 0
KAM1 150447Z 21009KT 01/01 A301 RMK A01 T00110011  RH  100%=      5-min Rain = 0
KAM1 150448Z 20009KT 01/01 A301 RMK A01 T00110011  RH  100%=      5-min Rain = 0
KAM1 150449Z 20010KT 01/01 A301 RMK A01 T00110011  RH  100%=      5-min Rain = 0
KAM1 150450Z 20009KT 01/01 A301 RMK A01 T00110011  RH  100%=      5-min Rain = 0
KAM1 150451Z 20010KT 01/01 A301 RMK A01 T00110011  RH  100%=      5-min Rain = 0
KAM1 150452Z 20011KT 01/01 A301 RMK A01 T00110011  RH  100%=      5-min Rain = 0
KAM1 150453Z 20010KT 01/01 A301 RMK A01 T00110011  RH  100%=      5-min Rain = 0
KAM1 150454Z 20010KT 01/01 A301 RMK A01 T00110011  RH  100%=      5-min Rain = 0
KAM1 150455Z 20010KT 01/01 A301 RMK A01 T00110011  RH  100%=      5-min Rain = 0
KAM1 150456Z 20011KT 01/01 A301 RMK A01 T00110011  RH  100%=      5-min Rain = 0
KAM1 150457Z 20010KT 01/01 A3009 RMK A01 T00110011  RH  100%=      5-min Rain = 0
KAM1 150458Z 20010KT 01/01 A3009 RMK A01 T00110011  RH  100%=      5-min Rain = 0
KAM1 150459Z 20009KT 01/01 A3009 RMK A01 T00110010  RH  100%=      5-min Rain = 0
KAM1 150500Z 20010KT 01/01 A3009 RMK A01 T00100010  RH  100%=      5-min Rain = 0
KAM1 150501Z 20009KT 01/01 A3009 RMK A01 T00100010  RH  100%=      5-min Rain = 0
KAM1 150502Z 20010KT 01/01 A3009 RMK A01 T00090009  RH  100%=      5-min Rain = 0
KAM1 150503Z 20010KT 01/01 A3009 RMK A01 T00090009  RH  100%=      5-min Rain = 0
KAM1 150504Z 20011KT 01/01 A3009 RMK A01 T00090009  RH  100%=      5-min Rain = 0
KAM1 150505Z 20012KT 01/01 A3009 RMK A01 T00090009  RH  100%=      5-min Rain = 0
KAM1 150506Z 21012KT 01/01 A3009 RMK A01 T00100010  RH  100%=      5-min Rain = 0
KAM1 150507Z 20012KT 01/01 A3009 RMK A01 T00110011  RH  100%=      5-min Rain = 0
KAM1 150508Z 20012KT 01/01 A3009 RMK A01 T00110011  RH  100%=      5-min Rain = 0
KAM1 150509Z 20014KT 01/01 A3008 RMK A01 T00120012  RH  100%=      5-min Rain = 0
KAM1 150510Z 20013KT 01/01 A3008 RMK A01 T00130013  RH  100%=      5-min Rain = 0
KAM1 150511Z 20013KT 01/01 A3008 RMK A01 T00140014  RH  100%=      5-min Rain = 0
KAM1 150512Z 20014KT 01/01 A3008 RMK A01 T00140013  RH  100%=      5-min Rain = 0
KAM1 150513Z 20013KT 01/01 A3008 RMK A01 T00130013  RH  100%=      5-min Rain = 0
KAM1 150514Z 20014KT 01/01 A3008 RMK A01 T00140013  RH  100%=      5-min Rain = 0
KAM1 150515Z 20014G19KT 01/01 A3008 RMK A01 T00140014  RH  100%=      5-min Rain = 0
KAM1 150516Z 20014KT 01/01 A3008 RMK A01 T00140014  RH  100%=      5-min Rain = 0
KAM1 150517Z 20015KT 01/01 A3008 RMK A01 T00140014  RH  100%=      5-min Rain = 0
KAM1 150518Z 20014KT 01/01 A3008 RMK A01 T00140014  RH  100%=      5-min Rain = 0
KAM1 150519Z 20015KT 01/01 A3008 RMK A01 T00140014  RH  100%=      5-min Rain = 0
KAM1 150520Z 20018KT 02/02 A3008 RMK A01 T00150015  RH  100%=      5-min Rain = 0
KAM1 150521Z 20017KT 02/02 A3007 RMK A01 T00160016  RH  100%=      5-min Rain = 0
KAM1 150522Z 20017G22KT 02/02 A3007 RMK A01 T00170015  RH  099%=      5-min Rain = 0
KAM1 150523Z 20016KT 02/02 A3007 RMK A01 T00170015  RH  099%=      5-min Rain = 0
KAM1 150524Z 20017KT 02/02 A3007 RMK A01 T00170015  RH  099%=      5-min Rain = 0
KAM1 150525Z 20015KT 02/02 A3007 RMK A01 T00170015  RH  098%=      5-min Rain = 0
KAM1 150526Z 20015KT 02/01 A3007 RMK A01 T00170014  RH  098%=      5-min Rain = 0
KAM1 150527Z 20015KT 02/01 A3007 RMK A01 T00160014  RH  098%=      5-min Rain = 0
KAM1 150528Z 20015KT 02/01 A3007 RMK A01 T00160014  RH  099%=      5-min Rain = 0
KAM1 150529Z 20015KT 02/02 A3007 RMK A01 T00160015  RH  099%=      5-min Rain = 0
KAM1 150530Z 20014KT 02/01 A3007 RMK A01 T00160014  RH  099%=      5-min Rain = 0
KAM1 150531Z 21014KT 02/01 A3007 RMK A01 T00160014  RH  099%=      5-min Rain = 0
KAM1 150532Z 20013KT 02/01 A3007 RMK A01 T00160014  RH  099%=      5-min Rain = 0
KAM1 150533Z 20014KT 02/01 A3007 RMK A01 T00160014  RH  099%=      5-min Rain = 0
KAM1 150534Z 20015KT 02/01 A3007 RMK A01 T00160014  RH  099%=      5-min Rain = 0
KAM1 150535Z 20013KT 02/01 A3007 RMK A01 T00160014  RH  099%=      5-min Rain = 0
KAM1 150536Z 20013KT 02/01 A3007 RMK A01 T00160014  RH  099%=      5-min Rain = 0
KAM1 150537Z 20014KT 02/01 A3007 RMK A01 T00150014  RH  099%=      5-min Rain = 0
KAM1 150538Z 20015KT 02/01 A3007 RMK A01 T00150014  RH  099%=      5-min Rain = 0
KAM1 150539Z 20015KT 02/02 A3007 RMK A01 T00160015  RH  100%=      5-min Rain = 0
KAM1 150540Z 20013KT 02/02 A3007 RMK A01 T00170016  RH  099%=      5-min Rain = 0
KAM1 150541Z 21014KT 02/02 A3007 RMK A01 T00170015  RH  099%=      5-min Rain = 0
KAM1 150542Z 21015KT 02/02 A3007 RMK A01 T00170015  RH  099%=      5-min Rain = 0
KAM1 150543Z 20013KT 02/02 A3007 RMK A01 T00170016  RH  099%=      5-min Rain = 0
KAM1 150544Z 21015KT 02/02 A3007 RMK A01 T00180016  RH  099%=      5-min Rain = 0
KAM1 150545Z 21012KT 02/02 A3007 RMK A01 T00180016  RH  099%=      5-min Rain = 0
KAM1 150546Z 21013KT 02/02 A3007 RMK A01 T00180016  RH  098%=      5-min Rain = 0
KAM1 150547Z 21012KT 02/02 A3007 RMK A01 T00180016  RH  098%=      5-min Rain = 0
KAM1 150548Z 21013KT 02/02 A3006 RMK A01 T00180015  RH  098%=      5-min Rain = 0
KAM1 150549Z 21016KT 02/02 A3006 RMK A01 T00190017  RH  099%=      5-min Rain = 0
KAM1 150550Z 21014KT 02/02 A3006 RMK A01 T00200018  RH  099%=      5-min Rain = 0
KAM1 150551Z 21015KT 02/02 A3006 RMK A01 T00210018  RH  098%=      5-min Rain = 0
KAM1 150552Z 20015KT 02/02 A3006 RMK A01 T00210017  RH  098%=      5-min Rain = 0
KAM1 150553Z 21014KT 02/02 A3006 RMK A01 T00210017  RH  097%=      5-min Rain = 0
KAM1 150554Z 21014KT 02/02 A3006 RMK A01 T00210017  RH  097%=      5-min Rain = 0
KAM1 150555Z 21015G20KT 02/02 A3006 RMK A01 T00210017  RH  097%=      5-min Rain = 0
KAM1 150556Z 21013G18KT 02/02 A3006 RMK A01 T00210017  RH  097%=      5-min Rain = 0
KAM1 150557Z 21014KT 02/02 A3006 RMK A01 T00220017  RH  097%=      5-min Rain = 0
KAM1 150558Z 21014KT 02/02 A3006 RMK A01 T00220017  RH  097%=      5-min Rain = 0
KAM1 150559Z 21012KT 02/02 A3006 RMK A01 T00220017  RH  097%=      5-min Rain = 0

Page generated in 0.1642 seconds.